Time,TemperatureF,DewpointF,PressureIn,WindDirection,WindDirectionDegrees,WindSpeedMPH,WindSpeedGustMPH,Humidity,HourlyPrecipIn,Conditions,Clouds,dailyrainin,SoftwareType,DateUTC
2013-02-28 00:01:00,22.5,4.3,30.36,WNW,292,0.0,2.0,45,0.00,,,0.00,meteohub,2013-02-28 07:01:00,
2013-02-28 00:04:00,22.3,4.1,30.36,WNW,292,0.0,2.0,45,0.00,,,0.00,meteohub,2013-02-28 07:04:00,
2013-02-28 00:07:00,21.9,3.7,30.36,WNW,292,0.0,1.0,45,0.00,,,0.00,meteohub,2013-02-28 07:07:00,
2013-02-28 00:08:00,21.9,3.7,30.36,WNW,292,0.0,1.0,45,0.00,,,0.00,meteohub,2013-02-28 07:08:00,
2013-02-28 00:10:00,21.7,3.7,30.36,WNW,292,0.0,1.0,45,0.00,,,0.00,meteohub,2013-02-28 07:10:00,
2013-02-28 00:12:00,21.7,4.1,30.37,North,-999,-999.0,1.0,46,0.00,,,0.00,meteohub,2013-02-28 07:12:00,
2013-02-28 00:13:00,21.6,3.9,30.36,North,-999,-999.0,1.0,46,0.00,,,0.00,meteohub,2013-02-28 07:13:00,
2013-02-28 00:15:00,21.4,3.7,30.37,North,-999,-999.0,1.0,46,0.00,,,0.00,meteohub,2013-02-28 07:15:00,
2013-02-28 00:17:00,21.2,4.1,30.37,North,-999,-999.0,0.0,47,0.00,,,0.00,meteohub,2013-02-28 07:17:00,
2013-02-28 00:18:00,21.2,4.1,30.37,North,-999,-999.0,0.0,47,0.00,,,0.00,meteohub,2013-02-28 07:18:00,
2013-02-28 00:19:00,21.0,3.9,30.37,North,-999,-999.0,0.0,47,0.00,,,0.00,meteohub,2013-02-28 07:19:00,
2013-02-28 00:23:00,20.8,4.3,30.37,North,-999,-999.0,-999.0,48,0.00,,,0.00,meteohub,2013-02-28 07:23:00,
2013-02-28 00:24:00,20.8,4.3,30.37,North,-999,-999.0,-999.0,48,0.00,,,0.00,meteohub,2013-02-28 07:24:00,
2013-02-28 00:25:00,20.7,4.1,30.37,North,-999,-999.0,-999.0,48,0.00,,,0.00,meteohub,2013-02-28 07:25:00,
2013-02-28 00:28:00,20.7,4.5,30.37,North,-999,-999.0,-999.0,49,0.00,,,0.00,meteohub,2013-02-28 07:28:00,
2013-02-28 00:29:00,20.7,4.1,30.37,North,-999,-999.0,-999.0,48,0.00,,,0.00,meteohub,2013-02-28 07:29:00,
2013-02-28 00:30:00,20.5,3.9,30.37,North,-999,-999.0,-999.0,48,0.00,,,0.00,meteohub,2013-02-28 07:30:00,
2013-02-28 00:33:00,20.5,3.9,30.38,North,-999,-999.0,-999.0,48,0.00,,,0.00,meteohub,2013-02-28 07:33:00,
2013-02-28 00:35:00,20.5,4.3,30.38,North,-999,-999.0,-999.0,49,0.00,,,0.00,meteohub,2013-02-28 07:35:00,
2013-02-28 00:36:00,20.5,4.3,30.38,North,-999,-999.0,-999.0,49,0.00,,,0.00,meteohub,2013-02-28 07:36:00,
2013-02-28 00:39:00,20.3,4.1,30.38,North,-999,-999.0,-999.0,49,0.00,,,0.00,meteohub,2013-02-28 07:39:00,
2013-02-28 00:40:00,20.1,4.1,30.38,North,-999,-999.0,-999.0,49,0.00,,,0.00,meteohub,2013-02-28 07:40:00,
2013-02-28 00:42:00,20.1,3.6,30.38,North,-999,-999.0,-999.0,48,0.00,,,0.00,meteohub,2013-02-28 07:42:00,
2013-02-28 00:43:00,20.1,3.6,30.38,North,-999,-999.0,-999.0,48,0.00,,,0.00,meteohub,2013-02-28 07:43:00,
2013-02-28 00:44:00,19.9,3.4,30.38,North,-999,-999.0,-999.0,48,0.00,,,0.00,meteohub,2013-02-28 07:44:00,
2013-02-28 00:46:00,19.9,3.4,30.39,North,-999,-999.0,-999.0,48,0.00,,,0.00,meteohub,2013-02-28 07:46:00,
2013-02-28 00:48:00,19.9,3.4,30.39,North,-999,-999.0,-999.0,48,0.00,,,0.00,meteohub,2013-02-28 07:48:00,
2013-02-28 00:52:00,19.8,3.2,30.39,North,-999,-999.0,-999.0,48,0.00,,,0.00,meteohub,2013-02-28 07:52:00,
2013-02-28 00:53:00,19.6,3.6,30.39,North,-999,-999.0,-999.0,49,0.00,,,0.00,meteohub,2013-02-28 07:53:00,
2013-02-28 00:55:00,19.6,3.6,30.39,North,-999,-999.0,-999.0,49,0.00,,,0.00,meteohub,2013-02-28 07:55:00,
2013-02-28 00:57:00,19.6,3.6,30.39,North,-999,-999.0,-999.0,49,0.00,,,0.00,meteohub,2013-02-28 07:57:00,
2013-02-28 00:58:00,19.6,3.6,30.40,North,-999,-999.0,-999.0,49,0.00,,,0.00,meteohub,2013-02-28 07:58:00,
2013-02-28 00:59:00,19.6,3.6,30.40,North,-999,-999.0,-999.0,49,0.00,,,0.00,meteohub,2013-02-28 07:59:00,
2013-02-28 01:00:00,19.6,3.9,30.40,North,-999,-999.0,-999.0,50,0.00,,,0.00,meteohub,2013-02-28 08:00:00,
2013-02-28 01:05:00,19.4,4.3,30.40,North,-999,-999.0,-999.0,51,0.00,,,0.00,meteohub,2013-02-28 08:05:00,
2013-02-28 01:06:00,19.4,4.3,30.40,North,-999,-999.0,-999.0,51,0.00,,,0.00,meteohub,2013-02-28 08:06:00,
2013-02-28 01:09:00,19.2,4.1,30.40,North,-999,-999.0,-999.0,51,0.00,,,0.00,meteohub,2013-02-28 08:09:00,
2013-02-28 01:10:00,19.4,4.3,30.40,North,-999,-999.0,-999.0,51,0.00,,,0.00,meteohub,2013-02-28 08:10:00,
2013-02-28 01:11:00,19.4,4.3,30.40,North,-999,-999.0,-999.0,51,0.00,,,0.00,meteohub,2013-02-28 08:11:00,
2013-02-28 01:12:00,19.4,4.3,30.40,North,-999,-999.0,-999.0,51,0.00,,,0.00,meteohub,2013-02-28 08:12:00,
2013-02-28 01:16:00,19.6,4.5,30.40,North,-999,-999.0,-999.0,51,0.00,,,0.00,meteohub,2013-02-28 08:16:00,
2013-02-28 01:17:00,19.6,4.5,30.40,North,-999,-999.0,-999.0,51,0.00,,,0.00,meteohub,2013-02-28 08:17:00,
2013-02-28 01:21:00,19.4,4.3,30.40,North,-999,-999.0,-999.0,51,0.00,,,0.00,meteohub,2013-02-28 08:21:00,
2013-02-28 01:22:00,19.4,4.3,30.40,WNW,292,0.0,-999.0,51,0.00,,,0.00,meteohub,2013-02-28 08:22:00,
2013-02-28 01:23:00,19.2,4.1,30.40,WNW,292,0.0,-999.0,51,0.00,,,0.00,meteohub,2013-02-28 08:23:00,
2013-02-28 01:24:00,19.2,4.5,30.40,WNW,292,1.0,-999.0,52,0.00,,,0.00,meteohub,2013-02-28 08:24:00,
2013-02-28 01:27:00,19.6,5.2,30.40,WNW,292,0.0,2.0,53,0.00,,,0.00,meteohub,2013-02-28 08:27:00,
2013-02-28 01:28:00,19.6,5.2,30.40,WNW,292,0.0,2.0,53,0.00,,,0.00,meteohub,2013-02-28 08:28:00,
2013-02-28 01:30:00,19.6,5.2,30.40,WNW,292,0.0,2.0,53,0.00,,,0.00,meteohub,2013-02-28 08:30:00,
2013-02-28 01:33:00,19.2,5.4,30.40,WNW,292,2.0,2.0,54,0.00,,,0.00,meteohub,2013-02-28 08:33:00,
2013-02-28 01:34:00,19.2,5.4,30.40,WNW,292,2.0,2.0,54,0.00,,,0.00,meteohub,2013-02-28 08:34:00,
2013-02-28 01:36:00,19.2,5.4,30.40,SW,217,4.0,4.0,54,0.00,,,0.00,meteohub,2013-02-28 08:36:00,
2013-02-28 01:37:00,19.2,5.4,30.40,SW,218,4.0,4.0,54,0.00,,,0.00,meteohub,2013-02-28 08:37:00,
2013-02-28 01:41:00,19.2,5.4,30.40,SW,217,3.0,6.0,54,0.00,,,0.00,meteohub,2013-02-28 08:41:00,
2013-02-28 01:42:00,19.2,5.4,30.40,SW,217,3.0,6.0,54,0.00,,,0.00,meteohub,2013-02-28 08:42:00,
2013-02-28 01:43:00,19.2,5.4,30.40,SW,217,5.0,6.0,54,0.00,,,0.00,meteohub,2013-02-28 08:43:00,
2013-02-28 01:47:00,19.9,6.8,30.40,SW,217,1.0,6.0,56,0.00,,,0.00,meteohub,2013-02-28 08:47:00,
2013-02-28 01:48:00,19.9,6.8,30.41,SW,217,1.0,6.0,56,0.00,,,0.00,meteohub,2013-02-28 08:48:00,
2013-02-28 01:49:00,19.9,6.8,30.40,SW,217,1.0,6.0,56,0.00,,,0.00,meteohub,2013-02-28 08:49:00,
2013-02-28 01:52:00,19.9,6.4,30.41,SW,217,2.0,5.0,55,0.00,,,0.00,meteohub,2013-02-28 08:52:00,
2013-02-28 01:54:00,19.8,6.6,30.41,SW,217,0.0,5.0,56,0.00,,,0.00,meteohub,2013-02-28 08:54:00,
2013-02-28 01:55:00,19.8,6.6,30.41,SW,217,0.0,5.0,56,0.00,,,0.00,meteohub,2013-02-28 08:55:00,
2013-02-28 01:56:00,19.8,6.6,30.41,SW,217,0.0,5.0,56,0.00,,,0.00,meteohub,2013-02-28 08:56:00,
2013-02-28 01:57:00,19.8,6.6,30.41,SW,218,0.0,5.0,56,0.00,,,0.00,meteohub,2013-02-28 08:57:00,
2013-02-28 02:00:00,19.6,6.4,30.40,SW,217,0.0,5.0,56,0.00,,,0.00,meteohub,2013-02-28 09:00:00,
2013-02-28 02:01:00,19.2,6.1,30.40,SW,217,0.0,5.0,56,0.00,,,0.00,meteohub,2013-02-28 09:01:00,
2013-02-28 02:02:00,19.0,5.9,30.40,SW,217,1.0,3.0,56,0.00,,,0.00,meteohub,2013-02-28 09:02:00,
2013-02-28 02:06:00,18.9,5.7,30.40,SW,217,0.0,3.0,56,0.00,,,0.00,meteohub,2013-02-28 09:06:00,
2013-02-28 02:08:00,18.7,5.5,30.40,SW,217,0.0,2.0,56,0.00,,,0.00,meteohub,2013-02-28 09:08:00,
2013-02-28 02:10:00,18.7,5.9,30.40,SW,218,1.0,2.0,57,0.00,,,0.00,meteohub,2013-02-28 09:10:00,
2013-02-28 02:11:00,18.5,5.7,30.40,SW,217,0.0,2.0,57,0.00,,,0.00,meteohub,2013-02-28 09:11:00,
2013-02-28 02:12:00,18.3,5.7,30.40,SW,217,0.0,2.0,57,0.00,,,0.00,meteohub,2013-02-28 09:12:00,
2013-02-28 02:14:00,18.3,5.7,30.41,SW,217,0.0,2.0,57,0.00,,,0.00,meteohub,2013-02-28 09:14:00,
2013-02-28 02:17:00,18.1,5.5,30.41,SSW,210,2.0,2.0,57,0.00,,,0.00,meteohub,2013-02-28 09:17:00,
2013-02-28 02:19:00,18.0,5.4,30.40,SSW,210,0.0,2.0,57,0.00,,,0.00,meteohub,2013-02-28 09:19:00,
2013-02-28 02:20:00,18.0,5.4,30.41,SW,229,2.0,2.0,57,0.00,,,0.00,meteohub,2013-02-28 09:20:00,
2013-02-28 02:23:00,18.0,5.4,30.40,West,271,1.0,3.0,57,0.00,,,0.00,meteohub,2013-02-28 09:23:00,
2013-02-28 02:24:00,18.0,5.4,30.40,West,271,1.0,3.0,57,0.00,,,0.00,meteohub,2013-02-28 09:24:00,
2013-02-28 02:29:00,17.8,5.2,30.40,WNW,284,1.0,4.0,57,0.00,,,0.00,meteohub,2013-02-28 09:29:00,
2013-02-28 02:30:00,17.6,5.0,30.40,WNW,284,0.0,4.0,57,0.00,,,0.00,meteohub,2013-02-28 09:30:00,
2013-02-28 02:32:00,17.4,4.8,30.41,WNW,284,0.0,5.0,57,0.00,,,0.00,meteohub,2013-02-28 09:32:00,
2013-02-28 02:34:00,17.2,4.6,30.41,WNW,284,0.0,5.0,57,0.00,,,0.00,meteohub,2013-02-28 09:34:00,
2013-02-28 02:35:00,17.2,4.6,30.40,WNW,284,0.0,5.0,57,0.00,,,0.00,meteohub,2013-02-28 09:35:00,
2013-02-28 02:37:00,17.2,4.6,30.40,WNW,284,2.0,5.0,57,0.00,,,0.00,meteohub,2013-02-28 09:37:00,
2013-02-28 02:40:00,17.4,5.2,30.40,South,173,4.0,5.0,58,0.00,,,0.00,meteohub,2013-02-28 09:40:00,
2013-02-28 02:41:00,17.2,5.0,30.40,South,173,4.0,5.0,58,0.00,,,0.00,meteohub,2013-02-28 09:41:00,
2013-02-28 02:42:00,17.2,5.4,30.40,South,178,2.0,6.0,59,0.00,,,0.00,meteohub,2013-02-28 09:42:00,
2013-02-28 02:45:00,17.1,5.5,30.40,South,182,0.0,6.0,60,0.00,,,0.00,meteohub,2013-02-28 09:45:00,
2013-02-28 02:47:00,17.1,5.9,30.40,South,182,0.0,6.0,61,0.00,,,0.00,meteohub,2013-02-28 09:47:00,
2013-02-28 02:48:00,17.1,5.9,30.40,South,182,1.0,6.0,61,0.00,,,0.00,meteohub,2013-02-28 09:48:00,
2013-02-28 02:52:00,16.9,6.1,30.40,South,182,1.0,6.0,62,0.00,,,0.00,meteohub,2013-02-28 09:52:00,
2013-02-28 02:53:00,16.9,6.4,30.40,South,182,2.0,6.0,63,0.00,,,0.00,meteohub,2013-02-28 09:53:00,
2013-02-28 02:54:00,16.9,6.4,30.40,South,182,1.0,6.0,63,0.00,,,0.00,meteohub,2013-02-28 09:54:00,
2013-02-28 02:57:00,16.7,6.6,30.40,South,182,0.0,6.0,64,0.00,,,0.00,meteohub,2013-02-28 09:57:00,
2013-02-28 02:59:00,16.5,6.4,30.40,South,182,0.0,6.0,64,0.00,,,0.00,meteohub,2013-02-28 09:59:00,
2013-02-28 03:02:00,16.5,6.8,30.40,South,182,2.0,6.0,65,0.00,,,0.00,meteohub,2013-02-28 10:02:00,
2013-02-28 03:03:00,16.5,6.8,30.40,South,182,0.0,6.0,65,0.00,,,0.00,meteohub,2013-02-28 10:03:00,
2013-02-28 03:05:00,16.3,6.6,30.39,South,182,3.0,6.0,65,0.00,,,0.00,meteohub,2013-02-28 10:05:00,
2013-02-28 03:07:00,16.3,7.0,30.39,SSW,213,0.0,3.0,66,0.00,,,0.00,meteohub,2013-02-28 10:07:00,
2013-02-28 03:09:00,16.3,7.0,30.39,SSW,213,0.0,3.0,66,0.00,,,0.00,meteohub,2013-02-28 10:09:00,
2013-02-28 03:11:00,16.5,7.2,30.39,SSW,213,0.0,3.0,66,0.00,,,0.00,meteohub,2013-02-28 10:11:00,
2013-02-28 03:12:00,16.5,7.2,30.39,West,278,2.0,4.0,66,0.00,,,0.00,meteohub,2013-02-28 10:12:00,
2013-02-28 03:14:00,16.5,7.5,30.39,West,269,3.0,4.0,67,0.00,,,0.00,meteohub,2013-02-28 10:14:00,
2013-02-28 03:16:00,16.5,7.2,30.39,West,263,0.0,4.0,66,0.00,,,0.00,meteohub,2013-02-28 10:16:00,
2013-02-28 03:17:00,16.5,7.5,30.39,WSW,246,4.0,5.0,67,0.00,,,0.00,meteohub,2013-02-28 10:17:00,
2013-02-28 03:19:00,16.5,7.5,30.39,West,263,1.0,5.0,67,0.00,,,0.00,meteohub,2013-02-28 10:19:00,
2013-02-28 03:22:00,16.7,7.3,30.39,WSW,238,3.0,6.0,66,0.00,,,0.00,meteohub,2013-02-28 10:22:00,
2013-02-28 03:23:00,16.7,7.3,30.39,WSW,247,4.0,6.0,66,0.00,,,0.00,meteohub,2013-02-28 10:23:00,
2013-02-28 03:26:00,17.2,7.5,30.39,WSW,238,5.0,6.0,65,0.00,,,0.00,meteohub,2013-02-28 10:26:00,
2013-02-28 03:27:00,17.6,7.9,30.39,SW,226,6.0,6.0,65,0.00,,,0.00,meteohub,2013-02-28 10:27:00,
2013-02-28 03:28:00,18.0,8.2,30.39,SW,230,5.0,6.0,65,0.00,,,0.00,meteohub,2013-02-28 10:28:00,
2013-02-28 03:31:00,19.0,8.2,30.39,SW,226,5.0,6.0,62,0.00,,,0.00,meteohub,2013-02-28 10:31:00,
2013-02-28 03:32:00,19.2,8.1,30.39,SW,220,3.0,8.0,61,0.00,,,0.00,meteohub,2013-02-28 10:32:00,
2013-02-28 03:36:00,20.5,8.1,30.39,SW,235,1.0,8.0,58,0.00,,,0.00,meteohub,2013-02-28 10:36:00,
2013-02-28 03:37:00,20.7,7.9,30.39,SW,235,1.0,8.0,57,0.00,,,0.00,meteohub,2013-02-28 10:37:00,
2013-02-28 03:39:00,20.8,7.7,30.39,SW,216,2.0,8.0,56,0.00,,,0.00,meteohub,2013-02-28 10:39:00,
2013-02-28 03:42:00,20.8,7.7,30.38,SW,216,2.0,8.0,56,0.00,,,0.00,meteohub,2013-02-28 10:42:00,
2013-02-28 03:44:00,20.8,7.2,30.38,SW,236,4.0,8.0,55,0.00,,,0.00,meteohub,2013-02-28 10:44:00,
2013-02-28 03:45:00,21.0,7.3,30.38,SW,232,5.0,8.0,55,0.00,,,0.00,meteohub,2013-02-28 10:45:00,
2013-02-28 03:48:00,21.0,7.0,30.38,SW,232,1.0,6.0,54,0.00,,,0.00,meteohub,2013-02-28 10:48:00,
2013-02-28 03:49:00,21.0,7.0,30.38,WSW,243,3.0,6.0,54,0.00,,,0.00,meteohub,2013-02-28 10:49:00,
2013-02-28 03:50:00,21.0,7.0,30.38,SW,233,4.0,6.0,54,0.00,,,0.00,meteohub,2013-02-28 10:50:00,
2013-02-28 03:55:00,21.4,7.0,30.38,WSW,248,3.0,6.0,53,0.00,,,0.00,meteohub,2013-02-28 10:55:00,
2013-02-28 03:56:00,21.4,7.0,30.38,WSW,238,5.0,6.0,53,0.00,,,0.00,meteohub,2013-02-28 10:56:00,
2013-02-28 03:57:00,21.4,7.0,30.38,WSW,246,3.0,6.0,53,0.00,,,0.00,meteohub,2013-02-28 10:57:00,
2013-02-28 04:00:00,21.7,6.8,30.38,WSW,242,2.0,6.0,52,0.00,,,0.00,meteohub,2013-02-28 11:00:00,
2013-02-28 04:01:00,21.7,6.8,30.38,WSW,242,2.0,6.0,52,0.00,,,0.00,meteohub,2013-02-28 11:01:00,
2013-02-28 04:02:00,21.9,6.6,30.38,WSW,242,5.0,6.0,51,0.00,,,0.00,meteohub,2013-02-28 11:02:00,
2013-02-28 04:05:00,21.9,7.0,30.38,WSW,242,3.0,6.0,52,0.00,,,0.00,meteohub,2013-02-28 11:05:00,
2013-02-28 04:07:00,22.1,7.2,30.38,WSW,242,0.0,6.0,52,0.00,,,0.00,meteohub,2013-02-28 11:07:00,
2013-02-28 04:08:00,22.1,7.2,30.38,WSW,242,0.0,6.0,52,0.00,,,0.00,meteohub,2013-02-28 11:08:00,
2013-02-28 04:12:00,21.9,7.0,30.38,WSW,250,3.0,6.0,52,0.00,,,0.00,meteohub,2013-02-28 11:12:00,
2013-02-28 04:13:00,21.7,6.8,30.38,WSW,250,2.0,6.0,52,0.00,,,0.00,meteohub,2013-02-28 11:13:00,
2013-02-28 04:14:00,21.6,6.6,30.38,SW,235,4.0,6.0,52,0.00,,,0.00,meteohub,2013-02-28 11:14:00,
2013-02-28 04:17:00,21.4,6.4,30.38,WSW,240,3.0,5.0,52,0.00,,,0.00,meteohub,2013-02-28 11:17:00,
2013-02-28 04:18:00,21.4,6.4,30.38,WSW,240,3.0,5.0,52,0.00,,,0.00,meteohub,2013-02-28 11:18:00,
2013-02-28 04:19:00,21.4,6.4,30.38,WSW,240,2.0,5.0,52,0.00,,,0.00,meteohub,2013-02-28 11:19:00,
2013-02-28 04:24:00,21.0,6.6,30.38,WSW,240,2.0,4.0,53,0.00,,,0.00,meteohub,2013-02-28 11:24:00,
2013-02-28 04:25:00,21.0,7.0,30.38,WSW,255,2.0,4.0,54,0.00,,,0.00,meteohub,2013-02-28 11:25:00,
2013-02-28 04:26:00,21.0,7.0,30.38,WSW,255,3.0,4.0,54,0.00,,,0.00,meteohub,2013-02-28 11:26:00,
2013-02-28 04:29:00,20.7,6.6,30.38,WSW,257,1.0,4.0,54,0.00,,,0.00,meteohub,2013-02-28 11:29:00,
2013-02-28 04:31:00,20.3,6.8,30.38,SW,227,3.0,4.0,55,0.00,,,0.00,meteohub,2013-02-28 11:31:00,
2013-02-28 04:32:00,20.1,6.6,30.38,WSW,258,4.0,4.0,55,0.00,,,0.00,meteohub,2013-02-28 11:32:00,
2013-02-28 04:34:00,19.9,6.4,30.37,West,263,4.0,4.0,55,0.00,,,0.00,meteohub,2013-02-28 11:34:00,
2013-02-28 04:38:00,19.6,6.1,30.37,WSW,241,7.0,7.0,55,0.00,,,0.00,meteohub,2013-02-28 11:38:00,
2013-02-28 04:39:00,19.6,6.1,30.38,West,273,4.0,5.0,55,0.00,,,0.00,meteohub,2013-02-28 11:39:00,
2013-02-28 04:41:00,19.8,5.7,30.37,West,271,4.0,5.0,54,0.00,,,0.00,meteohub,2013-02-28 11:41:00,
2013-02-28 04:44:00,20.1,6.6,30.37,WSW,248,5.0,8.0,55,0.00,,,0.00,meteohub,2013-02-28 11:44:00,
2013-02-28 04:45:00,20.1,6.6,30.37,WSW,258,3.0,8.0,55,0.00,,,0.00,meteohub,2013-02-28 11:45:00,
2013-02-28 04:46:00,20.1,6.6,30.37,West,267,4.0,8.0,55,0.00,,,0.00,meteohub,2013-02-28 11:46:00,
2013-02-28 04:49:00,20.5,6.4,30.37,West,265,4.0,8.0,54,0.00,,,0.00,meteohub,2013-02-28 11:49:00,
2013-02-28 04:50:00,20.5,6.4,30.37,West,265,4.0,8.0,54,0.00,,,0.00,meteohub,2013-02-28 11:50:00,
2013-02-28 04:54:00,20.8,6.4,30.37,WSW,243,0.0,8.0,53,0.00,,,0.00,meteohub,2013-02-28 11:54:00,
2013-02-28 04:55:00,20.8,6.4,30.37,West,261,4.0,8.0,53,0.00,,,0.00,meteohub,2013-02-28 11:55:00,
2013-02-28 05:00:00,20.1,7.0,30.36,WSW,247,2.0,8.0,56,0.00,,,0.00,meteohub,2013-02-28 12:00:00,
2013-02-28 05:01:00,20.1,7.0,30.36,NW,315,3.0,8.0,56,0.00,,,0.00,meteohub,2013-02-28 12:01:00,
2013-02-28 05:02:00,19.8,6.6,30.37,WNW,289,1.0,8.0,56,0.00,,,0.00,meteohub,2013-02-28 12:02:00,
2013-02-28 05:05:00,19.6,6.8,30.37,WNW,289,0.0,6.0,57,0.00,,,0.00,meteohub,2013-02-28 12:05:00,
2013-02-28 05:06:00,19.4,6.6,30.37,WNW,289,0.0,6.0,57,0.00,,,0.00,meteohub,2013-02-28 12:06:00,
2013-02-28 05:07:00,19.2,6.4,30.37,WNW,289,0.0,6.0,57,0.00,,,0.00,meteohub,2013-02-28 12:07:00,
2013-02-28 05:08:00,19.0,6.3,30.37,WNW,289,0.0,6.0,57,0.00,,,0.00,meteohub,2013-02-28 12:08:00,
2013-02-28 05:11:00,18.9,6.1,30.37,WNW,289,0.0,6.0,57,0.00,,,0.00,meteohub,2013-02-28 12:11:00,
2013-02-28 05:12:00,18.7,5.9,30.37,WNW,289,0.0,6.0,57,0.00,,,0.00,meteohub,2013-02-28 12:12:00,
2013-02-28 05:13:00,18.3,6.1,30.37,WNW,289,0.0,6.0,58,0.00,,,0.00,meteohub,2013-02-28 12:13:00,
2013-02-28 05:14:00,18.1,5.9,30.37,WNW,289,0.0,6.0,58,0.00,,,0.00,meteohub,2013-02-28 12:14:00,
2013-02-28 05:16:00,17.8,5.9,30.37,WNW,289,0.0,6.0,59,0.00,,,0.00,meteohub,2013-02-28 12:16:00,
2013-02-28 05:17:00,17.4,5.9,30.37,WNW,289,1.0,6.0,60,0.00,,,0.00,meteohub,2013-02-28 12:17:00,
2013-02-28 05:18:00,17.4,5.9,30.37,WNW,289,2.0,6.0,60,0.00,,,0.00,meteohub,2013-02-28 12:18:00,
2013-02-28 05:19:00,17.2,6.1,30.37,WNW,289,0.0,6.0,61,0.00,,,0.00,meteohub,2013-02-28 12:19:00,
2013-02-28 05:22:00,17.1,5.9,30.37,WNW,289,0.0,6.0,61,0.00,,,0.00,meteohub,2013-02-28 12:22:00,
2013-02-28 05:23:00,16.7,5.9,30.37,WSW,253,0.0,6.0,62,0.00,,,0.00,meteohub,2013-02-28 12:23:00,
2013-02-28 05:24:00,16.5,6.1,30.37,WSW,253,0.0,3.0,63,0.00,,,0.00,meteohub,2013-02-28 12:24:00,
2013-02-28 05:25:00,16.5,6.1,30.37,WSW,257,0.0,3.0,63,0.00,,,0.00,meteohub,2013-02-28 12:25:00,
2013-02-28 05:28:00,16.2,5.7,30.37,WSW,257,1.0,3.0,63,0.00,,,0.00,meteohub,2013-02-28 12:28:00,
2013-02-28 05:29:00,16.0,5.5,30.37,WSW,257,0.0,3.0,63,0.00,,,0.00,meteohub,2013-02-28 12:29:00,
2013-02-28 05:31:00,15.8,5.4,30.37,WSW,257,0.0,3.0,63,0.00,,,0.00,meteohub,2013-02-28 12:31:00,
2013-02-28 05:33:00,15.6,5.5,30.37,WSW,257,0.0,3.0,64,0.00,,,0.00,meteohub,2013-02-28 12:33:00,
2013-02-28 05:34:00,15.4,5.4,30.37,WSW,257,0.0,3.0,64,0.00,,,0.00,meteohub,2013-02-28 12:34:00,
2013-02-28 05:37:00,15.3,5.5,30.37,WSW,257,0.0,3.0,65,0.00,,,0.00,meteohub,2013-02-28 12:37:00,
2013-02-28 05:39:00,15.3,5.5,30.37,WSW,257,0.0,3.0,65,0.00,,,0.00,meteohub,2013-02-28 12:39:00,
2013-02-28 05:40:00,15.1,5.4,30.37,WSW,257,0.0,3.0,65,0.00,,,0.00,meteohub,2013-02-28 12:40:00,
2013-02-28 05:42:00,15.1,5.4,30.37,WSW,257,0.0,2.0,65,0.00,,,0.00,meteohub,2013-02-28 12:42:00,
2013-02-28 05:44:00,14.7,5.4,30.37,WSW,257,2.0,2.0,66,0.00,,,0.00,meteohub,2013-02-28 12:44:00,
2013-02-28 05:45:00,14.7,5.4,30.37,WSW,257,0.0,2.0,66,0.00,,,0.00,meteohub,2013-02-28 12:45:00,
2013-02-28 05:47:00,14.5,5.2,30.37,WSW,257,5.0,5.0,66,0.00,,,0.00,meteohub,2013-02-28 12:47:00,
2013-02-28 05:50:00,14.4,5.4,30.37,WSW,248,6.0,6.0,67,0.00,,,0.00,meteohub,2013-02-28 12:50:00,
2013-02-28 05:51:00,14.4,5.4,30.37,WSW,240,5.0,5.0,67,0.00,,,0.00,meteohub,2013-02-28 12:51:00,
2013-02-28 05:52:00,14.4,5.4,30.37,West,263,2.0,6.0,67,0.00,,,0.00,meteohub,2013-02-28 12:52:00,
2013-02-28 05:54:00,14.5,5.9,30.37,West,263,0.0,6.0,68,0.00,,,0.00,meteohub,2013-02-28 12:54:00,
2013-02-28 05:56:00,14.5,5.9,30.37,WNW,291,2.0,6.0,68,0.00,,,0.00,meteohub,2013-02-28 12:56:00,
2013-02-28 05:57:00,14.4,5.7,30.37,WNW,291,0.0,6.0,68,0.00,,,0.00,meteohub,2013-02-28 12:57:00,
2013-02-28 05:58:00,14.4,6.1,30.37,NW,304,1.0,6.0,69,0.00,,,0.00,meteohub,2013-02-28 12:58:00,
2013-02-28 06:00:00,14.4,6.1,30.37,NW,304,0.0,6.0,69,0.00,,,0.00,meteohub,2013-02-28 13:00:00,
2013-02-28 06:02:00,14.4,6.1,30.37,NW,304,0.0,6.0,69,0.00,,,0.00,meteohub,2013-02-28 13:02:00,
2013-02-28 06:03:00,14.4,6.1,30.37,NW,304,0.0,6.0,69,0.00,,,0.00,meteohub,2013-02-28 13:03:00,
2013-02-28 06:05:00,14.4,6.4,30.37,NW,304,2.0,6.0,70,0.00,,,0.00,meteohub,2013-02-28 13:05:00,
2013-02-28 06:06:00,14.4,6.4,30.37,NW,304,1.0,6.0,70,0.00,,,0.00,meteohub,2013-02-28 13:06:00,
2013-02-28 06:09:00,14.2,5.9,30.37,West,269,3.0,5.0,69,0.00,,,0.00,meteohub,2013-02-28 13:09:00,
2013-02-28 06:11:00,14.2,6.3,30.37,West,269,2.0,5.0,70,0.00,,,0.00,meteohub,2013-02-28 13:11:00,
2013-02-28 06:12:00,14.2,6.3,30.37,West,269,1.0,6.0,70,0.00,,,0.00,meteohub,2013-02-28 13:12:00,
2013-02-28 06:15:00,14.0,6.1,30.37,West,269,0.0,6.0,70,0.00,,,0.00,meteohub,2013-02-28 13:15:00,
2013-02-28 06:16:00,14.0,6.1,30.37,West,269,0.0,6.0,70,0.00,,,0.00,meteohub,2013-02-28 13:16:00,
2013-02-28 06:17:00,13.8,5.9,30.37,West,269,0.0,6.0,70,0.00,,,0.00,meteohub,2013-02-28 13:17:00,
2013-02-28 06:22:00,13.8,6.1,30.38,West,269,1.0,6.0,71,0.00,,,0.00,meteohub,2013-02-28 13:22:00,
2013-02-28 06:24:00,13.8,6.1,30.38,West,269,2.0,6.0,71,0.00,,,0.00,meteohub,2013-02-28 13:24:00,
2013-02-28 06:27:00,13.8,6.1,30.38,West,269,4.0,4.0,71,0.00,,,0.00,meteohub,2013-02-28 13:27:00,
2013-02-28 06:28:00,13.8,6.1,30.38,WNW,302,5.0,5.0,71,0.00,,,0.00,meteohub,2013-02-28 13:28:00,
2013-02-28 06:29:00,13.8,6.4,30.38,West,270,3.0,4.0,72,0.00,,,0.00,meteohub,2013-02-28 13:29:00,
2013-02-28 06:32:00,13.8,6.4,30.37,West,279,4.0,7.0,72,0.00,,,0.00,meteohub,2013-02-28 13:32:00,
2013-02-28 06:33:00,14.0,6.6,30.37,WSW,239,6.0,7.0,72,0.00,,,0.00,meteohub,2013-02-28 13:33:00,
2013-02-28 06:35:00,14.5,7.2,30.38,West,277,6.0,7.0,72,0.00,,,0.00,meteohub,2013-02-28 13:35:00,
2013-02-28 06:37:00,14.7,7.3,30.38,West,275,9.0,10.0,72,0.00,,,0.00,meteohub,2013-02-28 13:37:00,
2013-02-28 06:40:00,15.6,7.5,30.38,WNW,284,9.0,10.0,70,0.00,,,0.00,meteohub,2013-02-28 13:40:00,
2013-02-28 06:41:00,15.8,7.7,30.38,WNW,291,5.0,10.0,70,0.00,,,0.00,meteohub,2013-02-28 13:41:00,
2013-02-28 06:43:00,16.5,8.1,30.38,WNW,288,6.0,11.0,69,0.00,,,0.00,meteohub,2013-02-28 13:43:00,
2013-02-28 06:44:00,16.9,8.2,30.38,WNW,294,8.0,11.0,68,0.00,,,0.00,meteohub,2013-02-28 13:44:00,
2013-02-28 06:46:00,17.6,8.2,30.38,WNW,287,6.0,11.0,66,0.00,,,0.00,meteohub,2013-02-28 13:46:00,
2013-02-28 06:48:00,17.8,7.7,30.38,WNW,286,6.0,11.0,64,0.00,,,0.00,meteohub,2013-02-28 13:48:00,
2013-02-28 06:49:00,17.8,7.7,30.38,WNW,285,6.0,11.0,64,0.00,,,0.00,meteohub,2013-02-28 13:49:00,
2013-02-28 06:53:00,17.6,7.2,30.38,NNW,336,2.0,11.0,63,0.00,,,0.00,meteohub,2013-02-28 13:53:00,
2013-02-28 06:54:00,17.4,7.0,30.38,NNW,336,1.0,11.0,63,0.00,,,0.00,meteohub,2013-02-28 13:54:00,
2013-02-28 06:55:00,17.4,7.0,30.38,NNW,336,0.0,11.0,63,0.00,,,0.00,meteohub,2013-02-28 13:55:00,
2013-02-28 06:56:00,17.4,7.0,30.38,NNW,336,1.0,11.0,63,0.00,,,0.00,meteohub,2013-02-28 13:56:00,
2013-02-28 06:58:00,17.4,7.0,30.38,NE,47,2.0,10.0,63,0.00,,,0.00,meteohub,2013-02-28 13:58:00,
2013-02-28 06:59:00,17.4,7.0,30.38,NE,52,0.0,10.0,63,0.00,,,0.00,meteohub,2013-02-28 13:59:00,
2013-02-28 07:00:00,17.4,7.0,30.38,NE,52,1.0,10.0,63,0.00,,,0.00,meteohub,2013-02-28 14:00:00,
2013-02-28 07:02:00,17.4,7.0,30.38,NE,52,0.0,9.0,63,0.00,,,0.00,meteohub,2013-02-28 14:02:00,
2013-02-28 07:04:00,17.4,7.0,30.38,NE,36,2.0,9.0,63,0.00,,,0.00,meteohub,2013-02-28 14:04:00,
2013-02-28 07:05:00,17.4,7.0,30.38,NW,316,3.0,9.0,63,0.00,,,0.00,meteohub,2013-02-28 14:05:00,
2013-02-28 07:08:00,17.4,7.0,30.38,NW,316,1.0,5.0,63,0.00,,,0.00,meteohub,2013-02-28 14:08:00,
2013-02-28 07:10:00,17.4,7.0,30.38,NW,316,1.0,5.0,63,0.00,,,0.00,meteohub,2013-02-28 14:10:00,
2013-02-28 07:11:00,17.4,7.0,30.38,NW,316,1.0,5.0,63,0.00,,,0.00,meteohub,2013-02-28 14:11:00,
2013-02-28 07:26:00,17.4,7.3,30.38,NNW,334,0.0,3.0,64,0.00,,,0.00,meteohub,2013-02-28 14:26:00,
2013-02-28 07:27:00,17.4,7.3,30.38,NNW,334,1.0,3.0,64,0.00,,,0.00,meteohub,2013-02-28 14:27:00,
2013-02-28 07:29:00,17.6,7.5,30.38,NNW,335,0.0,3.0,64,0.00,,,0.00,meteohub,2013-02-28 14:29:00,
2013-02-28 07:31:00,17.8,7.7,30.38,NNW,335,0.0,3.0,64,0.00,,,0.00,meteohub,2013-02-28 14:31:00,
2013-02-28 07:32:00,17.8,7.7,30.38,NNW,335,0.0,3.0,64,0.00,,,0.00,meteohub,2013-02-28 14:32:00,
2013-02-28 07:34:00,18.0,7.9,30.38,NNW,348,0.0,3.0,64,0.00,,,0.00,meteohub,2013-02-28 14:34:00,
2013-02-28 07:36:00,18.0,7.9,30.38,NNW,348,0.0,3.0,64,0.00,,,0.00,meteohub,2013-02-28 14:36:00,
2013-02-28 07:37:00,18.0,7.9,30.38,NNW,348,0.0,3.0,64,0.00,,,0.00,meteohub,2013-02-28 14:37:00,
2013-02-28 07:40:00,18.3,8.2,30.38,NNW,348,0.0,3.0,64,0.00,,,0.00,meteohub,2013-02-28 14:40:00,
2013-02-28 07:42:00,18.5,8.4,30.38,North,5,2.0,3.0,64,0.00,,,0.00,meteohub,2013-02-28 14:42:00,
2013-02-28 07:43:00,18.7,8.6,30.38,North,5,2.0,3.0,64,0.00,,,0.00,meteohub,2013-02-28 14:43:00,
2013-02-28 07:45:00,18.9,8.8,30.39,North,5,1.0,3.0,64,0.00,,,0.00,meteohub,2013-02-28 14:45:00,
2013-02-28 07:48:00,19.0,8.6,30.38,North,5,1.0,5.0,63,0.00,,,0.00,meteohub,2013-02-28 14:48:00,
2013-02-28 07:49:00,19.0,8.6,30.38,North,5,0.0,5.0,63,0.00,,,0.00,meteohub,2013-02-28 14:49:00,
2013-02-28 07:50:00,19.0,9.0,30.38,North,5,0.0,5.0,64,0.00,,,0.00,meteohub,2013-02-28 14:50:00,
2013-02-28 07:51:00,19.0,9.0,30.38,North,5,1.0,5.0,64,0.00,,,0.00,meteohub,2013-02-28 14:51:00,
2013-02-28 07:54:00,19.6,9.0,30.39,NNE,27,4.0,5.0,63,0.00,,,0.00,meteohub,2013-02-28 14:54:00,
2013-02-28 07:55:00,19.6,9.0,30.39,NNE,28,2.0,5.0,63,0.00,,,0.00,meteohub,2013-02-28 14:55:00,
2013-02-28 07:58:00,19.9,9.3,30.39,NNE,30,1.0,6.0,63,0.00,,,0.00,meteohub,2013-02-28 14:58:00,
2013-02-28 07:59:00,20.1,9.5,30.39,NNE,30,1.0,6.0,63,0.00,,,0.00,meteohub,2013-02-28 14:59:00,
2013-02-28 08:02:00,20.7,9.7,30.38,NNE,32,3.0,6.0,62,0.00,,,0.00,meteohub,2013-02-28 15:02:00,
2013-02-28 08:03:00,20.8,9.9,30.39,NNE,32,0.0,6.0,62,0.00,,,0.00,meteohub,2013-02-28 15:03:00,
2013-02-28 08:04:00,20.8,9.9,30.38,NNE,32,1.0,6.0,62,0.00,,,0.00,meteohub,2013-02-28 15:04:00,
2013-02-28 08:05:00,21.0,10.0,30.39,NNE,32,1.0,6.0,62,0.00,,,0.00,meteohub,2013-02-28 15:05:00,
2013-02-28 08:08:00,21.6,10.2,30.39,NNE,32,1.0,6.0,61,0.00,,,0.00,meteohub,2013-02-28 15:08:00,
2013-02-28 08:09:00,21.7,10.0,30.39,NNE,32,0.0,6.0,60,0.00,,,0.00,meteohub,2013-02-28 15:09:00,
2013-02-28 08:10:00,21.7,10.0,30.39,NNE,32,0.0,6.0,60,0.00,,,0.00,meteohub,2013-02-28 15:10:00,
2013-02-28 08:12:00,22.3,10.2,30.39,NNE,32,0.0,5.0,59,0.00,,,0.00,meteohub,2013-02-28 15:12:00,
2013-02-28 08:16:00,23.4,10.0,30.39,NNE,32,2.0,5.0,56,0.00,,,0.00,meteohub,2013-02-28 15:16:00,
2013-02-28 08:17:00,23.7,10.4,30.39,NNE,32,2.0,4.0,56,0.00,,,0.00,meteohub,2013-02-28 15:17:00,
2013-02-28 08:22:00,25.0,10.8,30.40,ESE,103,5.0,5.0,54,0.00,,,0.00,meteohub,2013-02-28 15:22:00,
2013-02-28 08:23:00,25.2,10.4,30.39,ESE,103,4.0,5.0,53,0.00,,,0.00,meteohub,2013-02-28 15:23:00,
2013-02-28 08:28:00,26.2,10.6,30.40,ESE,115,2.0,6.0,51,0.00,,,0.00,meteohub,2013-02-28 15:28:00,
2013-02-28 08:29:00,26.2,10.2,30.40,ESE,115,2.0,6.0,50,0.00,,,0.00,meteohub,2013-02-28 15:29:00,
2013-02-28 08:31:00,26.8,10.6,30.40,ESE,115,2.0,6.0,50,0.00,,,0.00,meteohub,2013-02-28 15:31:00,
2013-02-28 08:34:00,27.1,10.6,30.40,ESE,115,1.0,6.0,49,0.00,,,0.00,meteohub,2013-02-28 15:34:00,
2013-02-28 08:35:00,27.3,10.8,30.40,ESE,115,1.0,6.0,49,0.00,,,0.00,meteohub,2013-02-28 15:35:00,
2013-02-28 08:36:00,27.5,10.4,30.40,ESE,115,2.0,6.0,48,0.00,,,0.00,meteohub,2013-02-28 15:36:00,
2013-02-28 08:40:00,28.0,10.4,30.40,ESE,115,1.0,6.0,47,0.00,,,0.00,meteohub,2013-02-28 15:40:00,
2013-02-28 08:41:00,28.2,10.0,30.40,ESE,115,0.0,6.0,46,0.00,,,0.00,meteohub,2013-02-28 15:41:00,
2013-02-28 08:42:00,28.2,10.0,30.40,ESE,115,0.0,5.0,46,0.00,,,0.00,meteohub,2013-02-28 15:42:00,
2013-02-28 08:46:00,29.1,10.9,30.40,ESE,115,0.0,5.0,46,0.00,,,0.00,meteohub,2013-02-28 15:46:00,
2013-02-28 08:47:00,29.5,10.8,30.40,ESE,115,0.0,5.0,45,0.00,,,0.00,meteohub,2013-02-28 15:47:00,
2013-02-28 08:48:00,29.7,10.9,30.40,ESE,115,0.0,5.0,45,0.00,,,0.00,meteohub,2013-02-28 15:48:00,
2013-02-28 08:51:00,30.4,10.6,30.40,ESE,115,0.0,5.0,43,0.00,,,0.00,meteohub,2013-02-28 15:51:00,
2013-02-28 08:52:00,30.6,10.8,30.40,ESE,115,0.0,4.0,43,0.00,,,0.00,meteohub,2013-02-28 15:52:00,
2013-02-28 08:55:00,31.3,10.8,30.40,ESE,115,0.0,4.0,42,0.00,,,0.00,meteohub,2013-02-28 15:55:00,
2013-02-28 08:57:00,31.5,10.4,30.40,ESE,115,0.0,2.0,41,0.00,,,0.00,meteohub,2013-02-28 15:57:00,
2013-02-28 08:58:00,31.5,10.4,30.40,ESE,115,0.0,2.0,41,0.00,,,0.00,meteohub,2013-02-28 15:58:00,
2013-02-28 09:00:00,31.8,10.8,30.40,ESE,115,0.0,2.0,41,0.00,,,0.00,meteohub,2013-02-28 16:00:00,
2013-02-28 09:01:00,31.8,10.2,30.40,ESE,115,0.0,2.0,40,0.00,,,0.00,meteohub,2013-02-28 16:01:00,
2013-02-28 09:03:00,32.4,11.3,30.40,ESE,115,0.0,2.0,41,0.00,,,0.00,meteohub,2013-02-28 16:03:00,
2013-02-28 09:05:00,32.7,11.1,30.40,East,98,0.0,2.0,40,0.00,,,0.00,meteohub,2013-02-28 16:05:00,
2013-02-28 09:06:00,33.1,11.3,30.40,ENE,74,1.0,1.0,40,0.00,,,0.00,meteohub,2013-02-28 16:06:00,
2013-02-28 09:07:00,33.1,11.3,30.40,ENE,71,0.0,1.0,40,0.00,,,0.00,meteohub,2013-02-28 16:07:00,
2013-02-28 09:08:00,33.3,11.5,30.40,ENE,71,0.0,1.0,40,0.00,,,0.00,meteohub,2013-02-28 16:08:00,
2013-02-28 09:12:00,34.2,11.8,30.40,ENE,71,0.0,2.0,39,0.00,,,0.00,meteohub,2013-02-28 16:12:00,
2013-02-28 09:13:00,34.3,12.0,30.40,ENE,71,0.0,2.0,39,0.00,,,0.00,meteohub,2013-02-28 16:13:00,
2013-02-28 09:14:00,34.5,11.5,30.40,ENE,71,0.0,2.0,38,0.00,,,0.00,meteohub,2013-02-28 16:14:00,
2013-02-28 09:17:00,35.2,12.2,30.40,ENE,71,0.0,2.0,38,0.00,,,0.00,meteohub,2013-02-28 16:17:00,
2013-02-28 09:18:00,35.6,12.6,30.40,ENE,71,0.0,2.0,38,0.00,,,0.00,meteohub,2013-02-28 16:18:00,
2013-02-28 09:19:00,36.0,12.2,30.40,ENE,71,0.0,2.0,37,0.00,,,0.00,meteohub,2013-02-28 16:19:00,
2013-02-28 09:21:00,36.9,12.4,30.40,ENE,71,1.0,2.0,36,0.00,,,0.00,meteohub,2013-02-28 16:21:00,
2013-02-28 09:23:00,37.2,12.0,30.40,ENE,71,0.0,2.0,35,0.00,,,0.00,meteohub,2013-02-28 16:23:00,
2013-02-28 09:25:00,37.8,11.8,30.40,ENE,71,0.0,2.0,34,0.00,,,0.00,meteohub,2013-02-28 16:25:00,
2013-02-28 09:27:00,38.1,12.9,30.40,ENE,71,0.0,2.0,35,0.00,,,0.00,meteohub,2013-02-28 16:27:00,
2013-02-28 09:30:00,38.1,11.5,30.40,ENE,71,0.0,2.0,33,0.00,,,0.00,meteohub,2013-02-28 16:30:00,
2013-02-28 09:32:00,38.7,12.0,30.40,ENE,71,0.0,2.0,33,0.00,,,0.00,meteohub,2013-02-28 16:32:00,
2013-02-28 09:34:00,39.0,11.7,30.40,ENE,71,0.0,2.0,32,0.00,,,0.00,meteohub,2013-02-28 16:34:00,
2013-02-28 09:36:00,39.2,12.6,30.40,ENE,71,0.0,2.0,33,0.00,,,0.00,meteohub,2013-02-28 16:36:00,
2013-02-28 09:37:00,39.0,11.7,30.40,ENE,71,0.0,2.0,32,0.00,,,0.00,meteohub,2013-02-28 16:37:00,
2013-02-28 09:39:00,38.7,10.6,30.40,ENE,71,1.0,2.0,31,0.00,,,0.00,meteohub,2013-02-28 16:39:00,
2013-02-28 09:41:00,38.3,10.9,30.40,ENE,71,1.0,2.0,32,0.00,,,0.00,meteohub,2013-02-28 16:41:00,
2013-02-28 09:42:00,38.1,10.9,30.40,ENE,71,1.0,1.0,32,0.00,,,0.00,meteohub,2013-02-28 16:42:00,
2013-02-28 09:46:00,37.9,11.3,30.40,ENE,71,1.0,1.0,33,0.00,,,0.00,meteohub,2013-02-28 16:46:00,
2013-02-28 09:48:00,37.9,12.0,30.40,ENE,71,0.0,2.0,34,0.00,,,0.00,meteohub,2013-02-28 16:48:00,
2013-02-28 09:49:00,38.1,12.2,30.40,ENE,71,1.0,2.0,34,0.00,,,0.00,meteohub,2013-02-28 16:49:00,
2013-02-28 09:51:00,38.5,11.8,30.40,ENE,71,0.0,2.0,33,0.00,,,0.00,meteohub,2013-02-28 16:51:00,
2013-02-28 09:53:00,38.8,11.5,30.40,ENE,72,0.0,2.0,32,0.00,,,0.00,meteohub,2013-02-28 16:53:00,
2013-02-28 09:56:00,39.2,11.1,30.41,ENE,72,0.0,2.0,31,0.00,,,0.00,meteohub,2013-02-28 16:56:00,
2013-02-28 09:57:00,39.4,11.3,30.40,ENE,72,1.0,2.0,31,0.00,,,0.00,meteohub,2013-02-28 16:57:00,
2013-02-28 09:58:00,39.4,12.0,30.40,ENE,72,0.0,2.0,32,0.00,,,0.00,meteohub,2013-02-28 16:58:00,
2013-02-28 09:59:00,39.4,12.0,30.40,ENE,73,0.0,2.0,32,0.00,,,0.00,meteohub,2013-02-28 16:59:00,
2013-02-28 10:04:00,38.7,9.9,30.40,ENE,73,2.0,2.0,30,0.00,,,0.00,meteohub,2013-02-28 17:04:00,
2013-02-28 10:05:00,38.5,9.7,30.40,ENE,73,3.0,3.0,30,0.00,,,0.00,meteohub,2013-02-28 17:05:00,
2013-02-28 10:07:00,38.1,9.5,30.40,ENE,73,2.0,2.0,30,0.00,,,0.00,meteohub,2013-02-28 17:07:00,
2013-02-28 10:10:00,37.9,10.0,30.40,ENE,73,2.0,2.0,31,0.00,,,0.00,meteohub,2013-02-28 17:10:00,
2013-02-28 10:12:00,37.8,9.1,30.40,ENE,73,1.0,4.0,30,0.00,,,0.00,meteohub,2013-02-28 17:12:00,
2013-02-28 10:13:00,37.8,9.1,30.40,ENE,73,1.0,4.0,30,0.00,,,0.00,meteohub,2013-02-28 17:13:00,
2013-02-28 10:17:00,37.6,8.2,30.40,ENE,73,0.0,4.0,29,0.00,,,0.00,meteohub,2013-02-28 17:17:00,
2013-02-28 10:18:00,37.8,8.4,30.40,ENE,73,0.0,4.0,29,0.00,,,0.00,meteohub,2013-02-28 17:18:00,
2013-02-28 10:20:00,38.1,10.2,30.40,ENE,73,0.0,4.0,31,0.00,,,0.00,meteohub,2013-02-28 17:20:00,
2013-02-28 10:22:00,38.8,10.0,30.40,ENE,73,1.0,4.0,30,0.00,,,0.00,meteohub,2013-02-28 17:22:00,
2013-02-28 10:23:00,39.2,10.4,30.40,ENE,73,0.0,4.0,30,0.00,,,0.00,meteohub,2013-02-28 17:23:00,
2013-02-28 10:25:00,39.6,9.9,30.40,ENE,73,0.0,4.0,29,0.00,,,0.00,meteohub,2013-02-28 17:25:00,
2013-02-28 10:27:00,40.3,9.0,30.40,ENE,73,0.0,3.0,27,0.00,,,0.00,meteohub,2013-02-28 17:27:00,
2013-02-28 10:28:00,40.6,9.3,30.40,ENE,73,0.0,3.0,27,0.00,,,0.00,meteohub,2013-02-28 17:28:00,
2013-02-28 10:30:00,41.4,9.0,30.40,SSW,192,0.0,3.0,26,0.00,,,0.00,meteohub,2013-02-28 17:30:00,
2013-02-28 10:32:00,41.5,8.2,30.40,SSW,199,3.0,3.0,25,0.00,,,0.00,meteohub,2013-02-28 17:32:00,
2013-02-28 10:34:00,42.1,8.8,30.40,SSW,199,2.0,3.0,25,0.00,,,0.00,meteohub,2013-02-28 17:34:00,
2013-02-28 10:35:00,42.3,8.1,30.40,SSW,199,2.0,3.0,24,0.00,,,0.00,meteohub,2013-02-28 17:35:00,
2013-02-28 10:40:00,43.2,8.8,30.40,SW,219,0.0,3.0,24,0.00,,,0.00,meteohub,2013-02-28 17:40:00,
2013-02-28 10:41:00,43.3,9.0,30.40,SW,219,0.0,3.0,24,0.00,,,0.00,meteohub,2013-02-28 17:41:00,
2013-02-28 10:42:00,43.3,9.0,30.40,SW,219,0.0,3.0,24,0.00,,,0.00,meteohub,2013-02-28 17:42:00,
2013-02-28 10:46:00,43.5,10.9,30.40,West,275,5.0,5.0,26,0.00,,,0.00,meteohub,2013-02-28 17:46:00,
2013-02-28 10:48:00,43.9,12.0,30.40,West,265,1.0,4.0,27,0.00,,,0.00,meteohub,2013-02-28 17:48:00,
2013-02-28 10:49:00,43.9,9.3,30.40,West,269,0.0,4.0,24,0.00,,,0.00,meteohub,2013-02-28 17:49:00,
2013-02-28 10:50:00,44.1,9.5,30.40,West,269,0.0,4.0,24,0.00,,,0.00,meteohub,2013-02-28 17:50:00,
2013-02-28 10:52:00,44.1,8.6,30.40,West,269,3.0,5.0,23,0.00,,,0.00,meteohub,2013-02-28 17:52:00,
2013-02-28 10:55:00,44.2,8.8,30.40,West,269,0.0,5.0,23,0.00,,,0.00,meteohub,2013-02-28 17:55:00,
2013-02-28 10:57:00,44.1,8.6,30.40,West,269,0.0,5.0,23,0.00,,,0.00,meteohub,2013-02-28 17:57:00,
2013-02-28 10:58:00,44.2,9.7,30.40,West,269,0.0,5.0,24,0.00,,,0.00,meteohub,2013-02-28 17:58:00,
2013-02-28 11:00:00,44.8,10.2,30.39,West,269,2.0,5.0,24,0.00,,,0.00,meteohub,2013-02-28 18:00:00,
2013-02-28 11:02:00,45.1,10.4,30.39,WNW,300,0.0,5.0,24,0.00,,,0.00,meteohub,2013-02-28 18:02:00,
2013-02-28 11:03:00,45.3,10.6,30.39,WNW,300,3.0,5.0,24,0.00,,,0.00,meteohub,2013-02-28 18:03:00,
2013-02-28 11:05:00,45.9,12.0,30.39,WNW,284,3.0,5.0,25,0.00,,,0.00,meteohub,2013-02-28 18:05:00,
2013-02-28 11:07:00,46.6,10.8,30.39,WNW,296,8.0,8.0,23,0.00,,,0.00,meteohub,2013-02-28 18:07:00,
2013-02-28 11:08:00,46.6,10.8,30.39,NNW,327,7.0,8.0,23,0.00,,,0.00,meteohub,2013-02-28 18:08:00,
2013-02-28 11:10:00,46.0,9.3,30.39,NNW,342,7.0,8.0,22,0.00,,,0.00,meteohub,2013-02-28 18:10:00,
2013-02-28 11:13:00,45.5,8.8,30.39,NNW,334,7.0,11.0,22,0.00,,,0.00,meteohub,2013-02-28 18:13:00,
2013-02-28 11:15:00,45.3,9.7,30.39,NW,321,14.0,14.0,23,0.00,,,0.00,meteohub,2013-02-28 18:15:00,
2013-02-28 11:17:00,44.8,10.2,30.39,NNW,327,8.0,13.0,24,0.00,,,0.00,meteohub,2013-02-28 18:17:00,
2013-02-28 11:18:00,44.4,10.8,30.38,NW,321,6.0,13.0,25,0.00,,,0.00,meteohub,2013-02-28 18:18:00,
2013-02-28 11:21:00,44.1,11.3,30.38,NW,306,8.0,16.0,26,0.00,,,0.00,meteohub,2013-02-28 18:21:00,
2013-02-28 11:22:00,44.1,11.3,30.38,WNW,284,11.0,16.0,26,0.00,,,0.00,meteohub,2013-02-28 18:22:00,
2013-02-28 11:23:00,43.9,10.4,30.38,North,355,12.0,16.0,25,0.00,,,0.00,meteohub,2013-02-28 18:23:00,
2013-02-28 11:25:00,43.3,10.8,30.38,NNW,336,12.0,16.0,26,0.00,,,0.00,meteohub,2013-02-28 18:25:00,
2013-02-28 11:26:00,43.2,10.6,30.38,NNW,329,18.0,20.0,26,0.00,,,0.00,meteohub,2013-02-28 18:26:00,
2013-02-28 11:27:00,43.0,10.4,30.37,NW,321,13.0,20.0,26,0.00,,,0.00,meteohub,2013-02-28 18:27:00,
2013-02-28 11:29:00,42.6,10.9,30.38,NNW,334,7.0,20.0,27,0.00,,,0.00,meteohub,2013-02-28 18:29:00,
2013-02-28 11:31:00,42.3,11.5,30.38,NNW,346,13.0,20.0,28,0.00,,,0.00,meteohub,2013-02-28 18:31:00,
2013-02-28 11:32:00,42.1,10.6,30.37,North,350,18.0,20.0,27,0.00,,,0.00,meteohub,2013-02-28 18:32:00,
2013-02-28 11:36:00,41.5,10.8,30.38,NW,321,15.0,20.0,28,0.00,,,0.00,meteohub,2013-02-28 18:36:00,
2013-02-28 11:37:00,41.5,10.0,30.38,North,5,13.0,22.0,27,0.00,,,0.00,meteohub,2013-02-28 18:37:00,
2013-02-28 11:38:00,41.4,9.9,30.38,NNW,346,20.0,22.0,27,0.00,,,0.00,meteohub,2013-02-28 18:38:00,
2013-02-28 11:40:00,40.8,10.2,30.38,NW,321,17.0,22.0,28,0.00,,,0.00,meteohub,2013-02-28 18:40:00,
2013-02-28 11:42:00,40.6,10.0,30.38,NNW,348,16.0,24.0,28,0.00,,,0.00,meteohub,2013-02-28 18:42:00,
2013-02-28 11:44:00,40.5,9.9,30.38,NW,317,13.0,24.0,28,0.00,,,0.00,meteohub,2013-02-28 18:44:00,
2013-02-28 11:46:00,40.5,9.9,30.37,NNW,330,14.0,24.0,28,0.00,,,0.00,meteohub,2013-02-28 18:46:00,
2013-02-28 11:48:00,40.5,10.8,30.38,NW,321,10.0,24.0,29,0.00,,,0.00,meteohub,2013-02-28 18:48:00,
2013-02-28 11:51:00,40.5,10.8,30.38,NW,325,10.0,24.0,29,0.00,,,0.00,meteohub,2013-02-28 18:51:00,
2013-02-28 11:52:00,40.5,10.8,30.38,NNW,344,8.0,24.0,29,0.00,,,0.00,meteohub,2013-02-28 18:52:00,
2013-02-28 11:53:00,40.5,10.8,30.38,NNW,338,19.0,24.0,29,0.00,,,0.00,meteohub,2013-02-28 18:53:00,
2013-02-28 11:56:00,40.5,10.8,30.38,NNW,327,12.0,23.0,29,0.00,,,0.00,meteohub,2013-02-28 18:56:00,
2013-02-28 11:57:00,40.5,10.8,30.38,NNW,345,8.0,23.0,29,0.00,,,0.00,meteohub,2013-02-28 18:57:00,
2013-02-28 11:58:00,40.5,9.9,30.38,NNW,337,11.0,23.0,28,0.00,,,0.00,meteohub,2013-02-28 18:58:00,
2013-02-28 12:01:00,40.6,10.0,30.37,NNW,348,14.0,23.0,28,0.00,,,0.00,meteohub,2013-02-28 19:01:00,
2013-02-28 12:02:00,40.5,9.9,30.38,North,351,12.0,23.0,28,0.00,,,0.00,meteohub,2013-02-28 19:02:00,
2013-02-28 12:03:00,40.5,9.9,30.37,WNW,292,11.0,23.0,28,0.00,,,0.00,meteohub,2013-02-28 19:03:00,
2013-02-28 12:06:00,40.5,9.9,30.37,North,349,9.0,20.0,28,0.00,,,0.00,meteohub,2013-02-28 19:06:00,
2013-02-28 12:07:00,40.5,9.9,30.37,NW,319,7.0,20.0,28,0.00,,,0.00,meteohub,2013-02-28 19:07:00,
2013-02-28 12:08:00,40.5,10.8,30.37,North,350,14.0,20.0,29,0.00,,,0.00,meteohub,2013-02-28 19:08:00,
2013-02-28 12:11:00,40.5,9.9,30.37,North,355,14.0,20.0,28,0.00,,,0.00,meteohub,2013-02-28 19:11:00,
2013-02-28 12:12:00,40.5,9.9,30.37,NNW,348,16.0,20.0,28,0.00,,,0.00,meteohub,2013-02-28 19:12:00,
2013-02-28 12:13:00,40.5,10.8,30.36,NNW,336,10.0,20.0,29,0.00,,,0.00,meteohub,2013-02-28 19:13:00,
2013-02-28 12:14:00,40.5,10.8,30.36,North,0,10.0,20.0,29,0.00,,,0.00,meteohub,2013-02-28 19:14:00,
2013-02-28 12:17:00,40.5,9.9,30.36,NNW,340,7.0,20.0,28,0.00,,,0.00,meteohub,2013-02-28 19:17:00,
2013-02-28 12:19:00,40.6,11.7,30.36,North,5,7.0,20.0,30,0.00,,,0.00,meteohub,2013-02-28 19:19:00,
2013-02-28 12:20:00,40.6,10.9,30.36,NNW,338,9.0,20.0,29,0.00,,,0.00,meteohub,2013-02-28 19:20:00,
2013-02-28 12:22:00,40.8,9.3,30.36,NNW,347,7.0,20.0,27,0.00,,,0.00,meteohub,2013-02-28 19:22:00,
2013-02-28 12:25:00,41.0,11.1,30.36,NW,324,3.0,20.0,29,0.00,,,0.00,meteohub,2013-02-28 19:25:00,
2013-02-28 12:26:00,41.2,11.3,30.36,NNW,327,9.0,20.0,29,0.00,,,0.00,meteohub,2013-02-28 19:26:00,
2013-02-28 12:29:00,41.4,9.9,30.36,NNW,338,7.0,20.0,27,0.00,,,0.00,meteohub,2013-02-28 19:29:00,
2013-02-28 12:31:00,41.5,10.8,30.36,WNW,285,7.0,15.0,28,0.00,,,0.00,meteohub,2013-02-28 19:31:00,
2013-02-28 12:32:00,41.7,11.8,30.36,West,269,9.0,15.0,29,0.00,,,0.00,meteohub,2013-02-28 19:32:00,
2013-02-28 12:34:00,42.3,10.6,30.36,WNW,294,13.0,15.0,27,0.00,,,0.00,meteohub,2013-02-28 19:34:00,
2013-02-28 12:36:00,42.4,12.4,30.35,NNW,339,8.0,15.0,29,0.00,,,0.00,meteohub,2013-02-28 19:36:00,
2013-02-28 12:40:00,42.6,9.3,30.35,NNW,338,6.0,14.0,25,0.00,,,0.00,meteohub,2013-02-28 19:40:00,
2013-02-28 12:41:00,42.6,10.9,30.35,West,275,13.0,13.0,27,0.00,,,0.00,meteohub,2013-02-28 19:41:00,
2013-02-28 12:42:00,42.6,10.9,30.35,WNW,288,5.0,13.0,27,0.00,,,0.00,meteohub,2013-02-28 19:42:00,
2013-02-28 12:43:00,42.6,10.9,30.35,NW,315,4.0,13.0,27,0.00,,,0.00,meteohub,2013-02-28 19:43:00,
2013-02-28 12:45:00,42.6,10.0,30.35,NNW,327,5.0,13.0,26,0.00,,,0.00,meteohub,2013-02-28 19:45:00,
2013-02-28 12:47:00,42.6,9.3,30.35,WNW,300,8.0,13.0,25,0.00,,,0.00,meteohub,2013-02-28 19:47:00,
2013-02-28 12:48:00,42.6,10.0,30.35,NW,309,9.0,13.0,26,0.00,,,0.00,meteohub,2013-02-28 19:48:00,
2013-02-28 12:51:00,43.0,11.3,30.34,NW,317,5.0,13.0,27,0.00,,,0.00,meteohub,2013-02-28 19:51:00,
2013-02-28 12:53:00,43.2,11.5,30.34,West,279,8.0,13.0,27,0.00,,,0.00,meteohub,2013-02-28 19:53:00,
2013-02-28 12:55:00,43.5,12.6,30.34,WNW,286,4.0,13.0,28,0.00,,,0.00,meteohub,2013-02-28 19:55:00,
2013-02-28 12:56:00,43.7,12.7,30.34,NW,315,5.0,13.0,28,0.00,,,0.00,meteohub,2013-02-28 19:56:00,
2013-02-28 12:58:00,43.9,12.9,30.34,WNW,300,10.0,13.0,28,0.00,,,0.00,meteohub,2013-02-28 19:58:00,
2013-02-28 12:59:00,43.9,12.9,30.34,WNW,300,7.0,13.0,28,0.00,,,0.00,meteohub,2013-02-28 19:59:00,
2013-02-28 13:02:00,44.1,11.3,30.34,NW,316,13.0,15.0,26,0.00,,,0.00,meteohub,2013-02-28 20:02:00,
2013-02-28 13:03:00,43.9,11.1,30.34,WNW,284,7.0,15.0,26,0.00,,,0.00,meteohub,2013-02-28 20:03:00,
2013-02-28 13:04:00,43.9,12.0,30.34,NNW,336,10.0,15.0,27,0.00,,,0.00,meteohub,2013-02-28 20:04:00,
2013-02-28 13:08:00,43.9,12.0,30.33,West,278,10.0,18.0,27,0.00,,,0.00,meteohub,2013-02-28 20:08:00,
2013-02-28 13:09:00,43.9,12.9,30.33,WNW,288,6.0,18.0,28,0.00,,,0.00,meteohub,2013-02-28 20:09:00,
2013-02-28 13:10:00,43.9,12.0,30.33,NW,305,6.0,18.0,27,0.00,,,0.00,meteohub,2013-02-28 20:10:00,
2013-02-28 13:11:00,43.9,12.0,30.33,West,276,13.0,18.0,27,0.00,,,0.00,meteohub,2013-02-28 20:11:00,
2013-02-28 13:14:00,43.7,11.1,30.33,NNW,327,7.0,18.0,26,0.00,,,0.00,meteohub,2013-02-28 20:14:00,
2013-02-28 13:16:00,43.9,12.9,30.32,NNW,330,6.0,18.0,28,0.00,,,0.00,meteohub,2013-02-28 20:16:00,
2013-02-28 13:17:00,43.9,12.0,30.32,NW,323,7.0,18.0,27,0.00,,,0.00,meteohub,2013-02-28 20:17:00,
2013-02-28 13:20:00,43.9,11.1,30.32,WNW,285,9.0,18.0,26,0.00,,,0.00,meteohub,2013-02-28 20:20:00,
2013-02-28 13:22:00,43.9,11.1,30.32,West,271,11.0,18.0,26,0.00,,,0.00,meteohub,2013-02-28 20:22:00,
2013-02-28 13:23:00,43.9,12.0,30.32,NW,310,12.0,18.0,27,0.00,,,0.00,meteohub,2013-02-28 20:23:00,
2013-02-28 13:27:00,43.7,11.8,30.32,WSW,250,6.0,17.0,27,0.00,,,0.00,meteohub,2013-02-28 20:27:00,
2013-02-28 13:28:00,43.5,11.7,30.32,WNW,288,7.0,17.0,27,0.00,,,0.00,meteohub,2013-02-28 20:28:00,
2013-02-28 13:31:00,43.3,10.8,30.31,WSW,258,13.0,17.0,26,0.00,,,0.00,meteohub,2013-02-28 20:31:00,
2013-02-28 13:32:00,43.3,10.8,30.31,West,278,7.0,17.0,26,0.00,,,0.00,meteohub,2013-02-28 20:32:00,
2013-02-28 13:35:00,43.5,12.6,30.31,West,273,15.0,17.0,28,0.00,,,0.00,meteohub,2013-02-28 20:35:00,
2013-02-28 13:37:00,43.5,11.7,30.31,West,273,10.0,20.0,27,0.00,,,0.00,meteohub,2013-02-28 20:37:00,
2013-02-28 13:38:00,43.7,11.8,30.31,West,279,12.0,20.0,27,0.00,,,0.00,meteohub,2013-02-28 20:38:00,
2013-02-28 13:40:00,43.9,13.6,30.31,WNW,286,9.0,20.0,29,0.00,,,0.00,meteohub,2013-02-28 20:40:00,
2013-02-28 13:42:00,43.9,12.9,30.31,West,269,10.0,20.0,28,0.00,,,0.00,meteohub,2013-02-28 20:42:00,
2013-02-28 13:43:00,43.9,11.1,30.31,NW,307,7.0,20.0,26,0.00,,,0.00,meteohub,2013-02-28 20:43:00,
2013-02-28 13:45:00,43.9,12.0,30.30,West,260,8.0,20.0,27,0.00,,,0.00,meteohub,2013-02-28 20:45:00,
2013-02-28 13:47:00,43.9,12.9,30.30,WNW,282,8.0,20.0,28,0.00,,,0.00,meteohub,2013-02-28 20:47:00,
2013-02-28 13:49:00,44.1,13.1,30.30,NW,307,7.0,20.0,28,0.00,,,0.00,meteohub,2013-02-28 20:49:00,
2013-02-28 13:50:00,44.1,13.1,30.30,WNW,303,14.0,20.0,28,0.00,,,0.00,meteohub,2013-02-28 20:50:00,
2013-02-28 13:52:00,44.1,12.2,30.30,NW,316,7.0,20.0,27,0.00,,,0.00,meteohub,2013-02-28 20:52:00,
2013-02-28 13:53:00,44.1,12.2,30.30,WNW,284,12.0,20.0,27,0.00,,,0.00,meteohub,2013-02-28 20:53:00,
2013-02-28 13:56:00,44.1,12.2,30.30,WNW,284,17.0,20.0,27,0.00,,,0.00,meteohub,2013-02-28 20:56:00,
2013-02-28 13:57:00,44.1,13.1,30.30,West,275,16.0,16.0,28,0.00,,,0.00,meteohub,2013-02-28 20:57:00,
2013-02-28 13:58:00,44.1,13.1,30.30,NW,306,13.0,16.0,28,0.00,,,0.00,meteohub,2013-02-28 20:58:00,
2013-02-28 14:00:00,44.1,12.2,30.30,WNW,303,13.0,16.0,27,0.00,,,0.00,meteohub,2013-02-28 21:00:00,
2013-02-28 14:01:00,43.9,12.0,30.30,West,269,6.0,16.0,27,0.00,,,0.00,meteohub,2013-02-28 21:01:00,
2013-02-28 14:03:00,43.7,12.7,30.30,West,261,13.0,20.0,28,0.00,,,0.00,meteohub,2013-02-28 21:03:00,
2013-02-28 14:05:00,43.5,12.6,30.30,WNW,294,15.0,20.0,28,0.00,,,0.00,meteohub,2013-02-28 21:05:00,
2013-02-28 14:07:00,43.5,11.7,30.30,West,267,14.0,24.0,27,0.00,,,0.00,meteohub,2013-02-28 21:07:00,
2013-02-28 14:10:00,43.5,13.3,30.29,West,267,13.0,24.0,29,0.00,,,0.00,meteohub,2013-02-28 21:10:00,
2013-02-28 14:11:00,43.5,13.3,30.29,NW,317,6.0,24.0,29,0.00,,,0.00,meteohub,2013-02-28 21:11:00,
2013-02-28 14:12:00,43.5,13.3,30.29,WNW,288,10.0,24.0,29,0.00,,,0.00,meteohub,2013-02-28 21:12:00,
2013-02-28 14:15:00,43.7,13.5,30.29,NW,304,14.0,24.0,29,0.00,,,0.00,meteohub,2013-02-28 21:15:00,
2013-02-28 14:16:00,43.7,13.5,30.29,WNW,291,17.0,24.0,29,0.00,,,0.00,meteohub,2013-02-28 21:16:00,
2013-02-28 14:17:00,43.7,13.5,30.30,WNW,294,16.0,24.0,29,0.00,,,0.00,meteohub,2013-02-28 21:17:00,
2013-02-28 14:19:00,43.5,14.2,30.29,WNW,289,9.0,24.0,30,0.00,,,0.00,meteohub,2013-02-28 21:19:00,
2013-02-28 14:21:00,43.7,13.5,30.29,West,281,20.0,24.0,29,0.00,,,0.00,meteohub,2013-02-28 21:21:00,
2013-02-28 14:22:00,43.5,13.3,30.29,West,275,18.0,21.0,29,0.00,,,0.00,meteohub,2013-02-28 21:22:00,
2013-02-28 14:23:00,43.3,14.0,30.29,WNW,299,15.0,21.0,30,0.00,,,0.00,meteohub,2013-02-28 21:23:00,
2013-02-28 14:26:00,43.2,13.1,30.29,NNW,329,10.0,20.0,29,0.00,,,0.00,meteohub,2013-02-28 21:26:00,
2013-02-28 14:27:00,43.2,13.8,30.29,WNW,300,13.0,20.0,30,0.00,,,0.00,meteohub,2013-02-28 21:27:00,
2013-02-28 14:28:00,43.2,13.8,30.29,WNW,287,15.0,20.0,30,0.00,,,0.00,meteohub,2013-02-28 21:28:00,
2013-02-28 14:31:00,43.3,14.0,30.29,WNW,302,12.0,22.0,30,0.00,,,0.00,meteohub,2013-02-28 21:31:00,
2013-02-28 14:32:00,43.3,14.7,30.29,West,265,12.0,22.0,31,0.00,,,0.00,meteohub,2013-02-28 21:32:00,
2013-02-28 14:34:00,43.5,14.2,30.29,WNW,299,12.0,22.0,30,0.00,,,0.00,meteohub,2013-02-28 21:34:00,
2013-02-28 14:36:00,43.5,14.2,30.29,WNW,290,20.0,24.0,30,0.00,,,0.00,meteohub,2013-02-28 21:36:00,
2013-02-28 14:39:00,43.9,14.4,30.29,WNW,288,7.0,24.0,30,0.00,,,0.00,meteohub,2013-02-28 21:39:00,
2013-02-28 14:40:00,43.9,14.4,30.29,NNW,336,10.0,24.0,30,0.00,,,0.00,meteohub,2013-02-28 21:40:00,
2013-02-28 14:41:00,43.9,13.6,30.29,WNW,300,7.0,24.0,29,0.00,,,0.00,meteohub,2013-02-28 21:41:00,
2013-02-28 14:42:00,44.1,14.5,30.29,WNW,286,15.0,24.0,30,0.00,,,0.00,meteohub,2013-02-28 21:42:00,
2013-02-28 14:44:00,44.4,14.9,30.29,WNW,283,17.0,24.0,30,0.00,,,0.00,meteohub,2013-02-28 21:44:00,
2013-02-28 14:46:00,44.6,14.4,30.29,NW,316,7.0,24.0,29,0.00,,,0.00,meteohub,2013-02-28 21:46:00,
2013-02-28 14:48:00,44.8,14.5,30.29,West,280,14.0,24.0,29,0.00,,,0.00,meteohub,2013-02-28 21:48:00,
2013-02-28 14:49:00,45.0,14.5,30.29,NW,312,15.0,24.0,29,0.00,,,0.00,meteohub,2013-02-28 21:49:00,
2013-02-28 14:52:00,45.0,14.5,30.29,NW,319,18.0,24.0,29,0.00,,,0.00,meteohub,2013-02-28 21:52:00,
2013-02-28 14:53:00,45.0,13.8,30.29,NW,310,12.0,24.0,28,0.00,,,0.00,meteohub,2013-02-28 21:53:00,
2013-02-28 14:57:00,44.2,14.0,30.28,NNW,335,20.0,24.0,29,0.00,,,0.00,meteohub,2013-02-28 21:57:00,
2013-02-28 14:58:00,44.1,13.8,30.29,NW,304,15.0,24.0,29,0.00,,,0.00,meteohub,2013-02-28 21:58:00,
2013-02-28 15:00:00,43.5,13.3,30.29,NNW,348,10.0,24.0,29,0.00,,,0.00,meteohub,2013-02-28 22:00:00,
2013-02-28 15:02:00,43.3,13.3,30.29,NNW,329,9.0,25.0,29,0.00,,,0.00,meteohub,2013-02-28 22:02:00,
2013-02-28 15:03:00,43.2,13.1,30.29,WNW,298,15.0,25.0,29,0.00,,,0.00,meteohub,2013-02-28 22:03:00,
2013-02-28 15:07:00,42.8,14.2,30.29,WNW,288,7.0,25.0,31,0.00,,,0.00,meteohub,2013-02-28 22:07:00,
2013-02-28 15:09:00,42.6,13.3,30.29,WNW,298,10.0,25.0,30,0.00,,,0.00,meteohub,2013-02-28 22:09:00,
2013-02-28 15:11:00,42.4,13.1,30.29,NNW,335,15.0,25.0,30,0.00,,,0.00,meteohub,2013-02-28 22:11:00,
2013-02-28 15:12:00,42.4,13.1,30.29,NW,321,16.0,25.0,30,0.00,,,0.00,meteohub,2013-02-28 22:12:00,
2013-02-28 15:13:00,42.3,13.1,30.30,WNW,289,9.0,25.0,30,0.00,,,0.00,meteohub,2013-02-28 22:13:00,
2013-02-28 15:15:00,41.9,12.7,30.29,NW,314,20.0,25.0,30,0.00,,,0.00,meteohub,2013-02-28 22:15:00,
2013-02-28 15:17:00,41.7,13.3,30.30,NNW,338,9.0,24.0,31,0.00,,,0.00,meteohub,2013-02-28 22:17:00,
2013-02-28 15:22:00,41.4,13.6,30.29,NNW,329,7.0,23.0,32,0.00,,,0.00,meteohub,2013-02-28 22:22:00,
2013-02-28 15:23:00,41.4,12.9,30.29,NNW,328,7.0,23.0,31,0.00,,,0.00,meteohub,2013-02-28 22:23:00,
2013-02-28 15:24:00,41.4,13.6,30.29,NW,325,8.0,23.0,32,0.00,,,0.00,meteohub,2013-02-28 22:24:00,
2013-02-28 15:27:00,41.2,12.7,30.29,NW,316,10.0,21.0,31,0.00,,,0.00,meteohub,2013-02-28 22:27:00,
2013-02-28 15:28:00,41.2,12.7,30.29,NW,321,13.0,21.0,31,0.00,,,0.00,meteohub,2013-02-28 22:28:00,
2013-02-28 15:29:00,41.2,13.5,30.29,NNW,328,10.0,21.0,32,0.00,,,0.00,meteohub,2013-02-28 22:29:00,
2013-02-28 15:33:00,41.0,14.0,30.29,NW,304,19.0,21.0,33,0.00,,,0.00,meteohub,2013-02-28 22:33:00,
2013-02-28 15:34:00,40.8,13.3,30.29,NW,310,19.0,21.0,32,0.00,,,0.00,meteohub,2013-02-28 22:34:00,
2013-02-28 15:35:00,40.8,13.3,30.29,WNW,302,19.0,21.0,32,0.00,,,0.00,meteohub,2013-02-28 22:35:00,
2013-02-28 15:36:00,40.8,13.3,30.29,WNW,301,15.0,21.0,32,0.00,,,0.00,meteohub,2013-02-28 22:36:00,
2013-02-28 15:39:00,40.6,13.1,30.29,WNW,293,10.0,26.0,32,0.00,,,0.00,meteohub,2013-02-28 22:39:00,
2013-02-28 15:40:00,40.5,12.9,30.29,WNW,288,11.0,26.0,32,0.00,,,0.00,meteohub,2013-02-28 22:40:00,
2013-02-28 15:41:00,40.5,13.6,30.29,NW,318,14.0,26.0,33,0.00,,,0.00,meteohub,2013-02-28 22:41:00,
2013-02-28 15:43:00,40.3,13.5,30.29,NW,323,18.0,29.0,33,0.00,,,0.00,meteohub,2013-02-28 22:43:00,
2013-02-28 15:45:00,40.3,13.5,30.30,NW,309,27.0,29.0,33,0.00,,,0.00,meteohub,2013-02-28 22:45:00,
2013-02-28 15:46:00,40.3,14.2,30.30,NW,323,21.0,29.0,34,0.00,,,0.00,meteohub,2013-02-28 22:46:00,
2013-02-28 15:47:00,40.3,14.2,30.30,NW,306,20.0,29.0,34,0.00,,,0.00,meteohub,2013-02-28 22:47:00,
2013-02-28 15:50:00,40.1,14.0,30.30,NW,308,16.0,29.0,34,0.00,,,0.00,meteohub,2013-02-28 22:50:00,
2013-02-28 15:51:00,40.1,13.3,30.30,NNW,344,9.0,29.0,33,0.00,,,0.00,meteohub,2013-02-28 22:51:00,
2013-02-28 15:53:00,39.9,13.1,30.30,NW,309,28.0,29.0,33,0.00,,,0.00,meteohub,2013-02-28 22:53:00,
2013-02-28 15:55:00,39.9,13.1,30.31,NW,322,15.0,29.0,33,0.00,,,0.00,meteohub,2013-02-28 22:55:00,
2013-02-28 15:57:00,39.7,12.9,30.30,NNW,341,21.0,29.0,33,0.00,,,0.00,meteohub,2013-02-28 22:57:00,
2013-02-28 15:58:00,39.7,12.9,30.30,NNW,335,15.0,29.0,33,0.00,,,0.00,meteohub,2013-02-28 22:58:00,
2013-02-28 15:59:00,39.7,12.9,30.31,NNW,339,10.0,29.0,33,0.00,,,0.00,meteohub,2013-02-28 22:59:00,
2013-02-28 16:02:00,39.6,13.5,30.31,NNW,345,11.0,28.0,34,0.00,,,0.00,meteohub,2013-02-28 23:02:00,
2013-02-28 16:03:00,39.6,12.7,30.30,NW,318,10.0,28.0,33,0.00,,,0.00,meteohub,2013-02-28 23:03:00,
2013-02-28 16:04:00,39.7,13.6,30.30,NNW,327,13.0,28.0,34,0.00,,,0.00,meteohub,2013-02-28 23:04:00,
2013-02-28 16:05:00,39.7,14.4,30.30,NNW,328,12.0,28.0,35,0.00,,,0.00,meteohub,2013-02-28 23:05:00,
2013-02-28 16:07:00,39.7,13.6,30.30,NNW,347,10.0,30.0,34,0.00,,,0.00,meteohub,2013-02-28 23:07:00,
2013-02-28 16:10:00,39.7,12.9,30.30,North,0,19.0,30.0,33,0.00,,,0.00,meteohub,2013-02-28 23:10:00,
2013-02-28 16:12:00,39.7,13.6,30.30,North,349,17.0,30.0,34,0.00,,,0.00,meteohub,2013-02-28 23:12:00,
2013-02-28 16:14:00,39.7,13.6,30.30,NNW,333,6.0,30.0,34,0.00,,,0.00,meteohub,2013-02-28 23:14:00,
2013-02-28 16:17:00,39.7,13.6,30.30,NNW,343,4.0,30.0,34,0.00,,,0.00,meteohub,2013-02-28 23:17:00,
2013-02-28 16:21:00,39.7,14.4,30.30,NW,326,16.0,30.0,35,0.00,,,0.00,meteohub,2013-02-28 23:21:00,
2013-02-28 16:22:00,39.7,14.4,30.30,NW,310,7.0,22.0,35,0.00,,,0.00,meteohub,2013-02-28 23:22:00,
2013-02-28 16:27:00,39.6,14.2,30.30,NNW,347,7.0,22.0,35,0.00,,,0.00,meteohub,2013-02-28 23:27:00,
2013-02-28 16:28:00,39.6,14.7,30.30,North,0,8.0,22.0,36,0.00,,,0.00,meteohub,2013-02-28 23:28:00,
2013-02-28 16:30:00,39.6,14.7,30.30,NW,322,6.0,22.0,36,0.00,,,0.00,meteohub,2013-02-28 23:30:00,
2013-02-28 16:34:00,39.4,14.0,30.30,NNW,329,4.0,18.0,35,0.00,,,0.00,meteohub,2013-02-28 23:34:00,
2013-02-28 16:36:00,39.2,14.5,30.30,NW,313,15.0,18.0,36,0.00,,,0.00,meteohub,2013-02-28 23:36:00,
2013-02-28 16:38:00,39.2,13.8,30.30,NW,323,10.0,18.0,35,0.00,,,0.00,meteohub,2013-02-28 23:38:00,
2013-02-28 16:39:00,39.0,13.6,30.30,NW,313,7.0,18.0,35,0.00,,,0.00,meteohub,2013-02-28 23:39:00,
2013-02-28 16:41:00,39.0,14.4,30.30,NNW,332,4.0,19.0,36,0.00,,,0.00,meteohub,2013-02-28 23:41:00,
2013-02-28 16:42:00,39.0,14.4,30.30,NNW,340,6.0,19.0,36,0.00,,,0.00,meteohub,2013-02-28 23:42:00,
2013-02-28 16:44:00,38.7,14.0,30.30,NNW,329,12.0,19.0,36,0.00,,,0.00,meteohub,2013-02-28 23:44:00,
2013-02-28 16:45:00,38.7,14.0,30.30,NNW,331,12.0,19.0,36,0.00,,,0.00,meteohub,2013-02-28 23:45:00,
2013-02-28 16:48:00,38.5,14.5,30.29,NNW,341,16.0,23.0,37,0.00,,,0.00,meteohub,2013-02-28 23:48:00,
2013-02-28 16:49:00,38.5,14.5,30.29,NNW,340,16.0,23.0,37,0.00,,,0.00,meteohub,2013-02-28 23:49:00,
2013-02-28 16:51:00,38.1,14.7,30.30,NW,319,18.0,23.0,38,0.00,,,0.00,meteohub,2013-02-28 23:51:00,
2013-02-28 16:52:00,38.1,14.7,30.30,NNW,341,11.0,27.0,38,0.00,,,0.00,meteohub,2013-02-28 23:52:00,
2013-02-28 16:54:00,37.9,14.0,30.30,WNW,298,10.0,27.0,37,0.00,,,0.00,meteohub,2013-02-28 23:54:00,
2013-02-28 16:55:00,37.9,14.0,30.30,NW,316,11.0,27.0,37,0.00,,,0.00,meteohub,2013-02-28 23:55:00,
2013-02-28 16:57:00,37.9,14.5,30.30,NW,322,9.0,27.0,38,0.00,,,0.00,meteohub,2013-02-28 23:57:00,
2013-02-28 16:58:00,37.9,14.5,30.30,NW,321,16.0,27.0,38,0.00,,,0.00,meteohub,2013-02-28 23:58:00,
2013-02-28 17:00:00,37.9,14.0,30.30,NNW,329,14.0,27.0,37,0.00,,,0.00,meteohub,2013-03-01 00:00:00,
2013-02-28 17:01:00,37.8,13.8,30.30,NNW,338,11.0,27.0,37,0.00,,,0.00,meteohub,2013-03-01 00:01:00,
2013-02-28 17:04:00,37.8,14.4,30.30,NNW,339,14.0,27.0,38,0.00,,,0.00,meteohub,2013-03-01 00:04:00,
2013-02-28 17:05:00,37.8,14.4,30.30,WNW,298,15.0,27.0,38,0.00,,,0.00,meteohub,2013-03-01 00:05:00,
2013-02-28 17:07:00,37.8,14.4,30.30,NNW,332,23.0,23.0,38,0.00,,,0.00,meteohub,2013-03-01 00:07:00,
2013-02-28 17:09:00,37.8,14.4,30.30,NW,307,19.0,22.0,38,0.00,,,0.00,meteohub,2013-03-01 00:09:00,
2013-02-28 17:11:00,37.6,14.9,30.30,WNW,293,20.0,22.0,39,0.00,,,0.00,meteohub,2013-03-01 00:11:00,
2013-02-28 17:12:00,37.6,14.2,30.30,NW,320,19.0,27.0,38,0.00,,,0.00,meteohub,2013-03-01 00:12:00,
2013-02-28 17:14:00,37.6,14.9,30.30,NW,313,8.0,27.0,39,0.00,,,0.00,meteohub,2013-03-01 00:14:00,
2013-02-28 17:15:00,37.6,14.9,30.30,NW,322,9.0,27.0,39,0.00,,,0.00,meteohub,2013-03-01 00:15:00,
2013-02-28 17:16:00,37.6,14.9,30.30,WNW,297,23.0,27.0,39,0.00,,,0.00,meteohub,2013-03-01 00:16:00,
2013-02-28 17:17:00,37.6,14.9,30.30,NNW,333,10.0,27.0,39,0.00,,,0.00,meteohub,2013-03-01 00:17:00,
2013-02-28 17:19:00,37.6,14.9,30.30,NW,311,16.0,27.0,39,0.00,,,0.00,meteohub,2013-03-01 00:19:00,
2013-02-28 17:22:00,37.4,14.7,30.30,NW,310,20.0,29.0,39,0.00,,,0.00,meteohub,2013-03-01 00:22:00,
2013-02-28 17:23:00,37.4,14.2,30.30,NW,319,19.0,29.0,38,0.00,,,0.00,meteohub,2013-03-01 00:23:00,
2013-02-28 17:24:00,37.4,14.7,30.30,WNW,296,12.0,29.0,39,0.00,,,0.00,meteohub,2013-03-01 00:24:00,
2013-02-28 17:28:00,37.2,14.5,30.30,NW,320,16.0,29.0,39,0.00,,,0.00,meteohub,2013-03-01 00:28:00,
2013-02-28 17:29:00,37.2,14.5,30.31,WNW,294,18.0,29.0,39,0.00,,,0.00,meteohub,2013-03-01 00:29:00,
2013-02-28 17:30:00,37.2,14.5,30.30,NNW,338,7.0,29.0,39,0.00,,,0.00,meteohub,2013-03-01 00:30:00,
2013-02-28 17:34:00,37.0,14.4,30.30,NW,320,13.0,29.0,39,0.00,,,0.00,meteohub,2013-03-01 00:34:00,
2013-02-28 17:36:00,37.0,14.4,30.30,West,281,20.0,29.0,39,0.00,,,0.00,meteohub,2013-03-01 00:36:00,
2013-02-28 17:37:00,37.0,14.4,30.30,WNW,286,11.0,25.0,39,0.00,,,0.00,meteohub,2013-03-01 00:37:00,
2013-02-28 17:39:00,37.0,14.9,30.31,NW,318,12.0,25.0,40,0.00,,,0.00,meteohub,2013-03-01 00:39:00,
2013-02-28 17:41:00,36.9,14.7,30.31,NNW,328,10.0,25.0,40,0.00,,,0.00,meteohub,2013-03-01 00:41:00,
2013-02-28 17:42:00,36.9,14.2,30.31,NW,308,22.0,25.0,39,0.00,,,0.00,meteohub,2013-03-01 00:42:00,
2013-02-28 17:45:00,36.9,14.2,30.31,WNW,294,9.0,25.0,39,0.00,,,0.00,meteohub,2013-03-01 00:45:00,
2013-02-28 17:46:00,36.9,14.2,30.31,West,271,12.0,25.0,39,0.00,,,0.00,meteohub,2013-03-01 00:46:00,
2013-02-28 17:47:00,36.7,14.0,30.31,West,269,12.0,25.0,39,0.00,,,0.00,meteohub,2013-03-01 00:47:00,
2013-02-28 17:50:00,36.9,14.2,30.31,NW,325,18.0,25.0,39,0.00,,,0.00,meteohub,2013-03-01 00:50:00,
2013-02-28 17:52:00,36.7,14.0,30.31,WNW,284,18.0,28.0,39,0.00,,,0.00,meteohub,2013-03-01 00:52:00,
2013-02-28 17:56:00,36.7,14.5,30.31,West,275,22.0,28.0,40,0.00,,,0.00,meteohub,2013-03-01 00:56:00,
2013-02-28 17:57:00,36.5,14.5,30.31,WNW,294,23.0,28.0,40,0.00,,,0.00,meteohub,2013-03-01 00:57:00,
2013-02-28 17:58:00,36.3,13.6,30.31,NNW,345,12.0,28.0,39,0.00,,,0.00,meteohub,2013-03-01 00:58:00,
2013-02-28 18:01:00,36.3,14.4,30.31,NW,313,7.0,28.0,40,0.00,,,0.00,meteohub,2013-03-01 01:01:00,
2013-02-28 18:02:00,36.3,14.4,30.31,WNW,298,17.0,28.0,40,0.00,,,0.00,meteohub,2013-03-01 01:02:00,
2013-02-28 18:03:00,36.3,14.4,30.31,NW,304,5.0,28.0,40,0.00,,,0.00,meteohub,2013-03-01 01:03:00,
2013-02-28 18:06:00,36.1,14.2,30.31,WNW,292,16.0,24.0,40,0.00,,,0.00,meteohub,2013-03-01 01:06:00,
2013-02-28 18:07:00,36.1,14.2,30.31,NW,325,12.0,24.0,40,0.00,,,0.00,meteohub,2013-03-01 01:07:00,
2013-02-28 18:09:00,36.1,13.6,30.31,West,273,12.0,24.0,39,0.00,,,0.00,meteohub,2013-03-01 01:09:00,
2013-02-28 18:11:00,36.1,14.2,30.31,NW,315,13.0,24.0,40,0.00,,,0.00,meteohub,2013-03-01 01:11:00,
2013-02-28 18:13:00,36.1,14.2,30.32,WNW,298,5.0,24.0,40,0.00,,,0.00,meteohub,2013-03-01 01:13:00,
2013-02-28 18:15:00,36.1,14.2,30.32,NW,318,17.0,24.0,40,0.00,,,0.00,meteohub,2013-03-01 01:15:00,
2013-02-28 18:16:00,36.1,14.2,30.32,NW,317,9.0,20.0,40,0.00,,,0.00,meteohub,2013-03-01 01:16:00,
2013-02-28 18:17:00,36.1,14.2,30.32,NW,305,11.0,20.0,40,0.00,,,0.00,meteohub,2013-03-01 01:17:00,
2013-02-28 18:20:00,36.0,14.0,30.32,WNW,302,10.0,25.0,40,0.00,,,0.00,meteohub,2013-03-01 01:20:00,
2013-02-28 18:21:00,36.0,14.0,30.32,NW,313,12.0,25.0,40,0.00,,,0.00,meteohub,2013-03-01 01:21:00,
2013-02-28 18:22:00,36.0,14.0,30.32,WNW,286,13.0,25.0,40,0.00,,,0.00,meteohub,2013-03-01 01:22:00,
2013-02-28 18:27:00,36.1,14.2,30.32,WNW,299,11.0,25.0,40,0.00,,,0.00,meteohub,2013-03-01 01:27:00,
2013-02-28 18:28:00,36.0,14.0,30.32,WNW,302,8.0,25.0,40,0.00,,,0.00,meteohub,2013-03-01 01:28:00,
2013-02-28 18:32:00,36.0,14.0,30.32,WNW,294,8.0,21.0,40,0.00,,,0.00,meteohub,2013-03-01 01:32:00,
2013-02-28 18:33:00,36.0,14.0,30.32,WNW,301,8.0,21.0,40,0.00,,,0.00,meteohub,2013-03-01 01:33:00,
2013-02-28 18:34:00,36.0,14.5,30.32,WNW,292,5.0,21.0,41,0.00,,,0.00,meteohub,2013-03-01 01:34:00,
2013-02-28 18:37:00,35.8,13.8,30.32,NW,317,8.0,18.0,40,0.00,,,0.00,meteohub,2013-03-01 01:37:00,
2013-02-28 18:38:00,35.8,13.8,30.32,WNW,300,12.0,18.0,40,0.00,,,0.00,meteohub,2013-03-01 01:38:00,
2013-02-28 18:39:00,35.8,13.8,30.32,WNW,295,10.0,18.0,40,0.00,,,0.00,meteohub,2013-03-01 01:39:00,
2013-02-28 18:40:00,35.8,13.8,30.32,WNW,302,8.0,16.0,40,0.00,,,0.00,meteohub,2013-03-01 01:40:00,
2013-02-28 18:42:00,35.8,13.8,30.32,NNW,333,9.0,16.0,40,0.00,,,0.00,meteohub,2013-03-01 01:42:00,
2013-02-28 18:43:00,35.8,13.8,30.31,WNW,288,10.0,16.0,40,0.00,,,0.00,meteohub,2013-03-01 01:43:00,
2013-02-28 18:45:00,35.8,13.8,30.32,WNW,286,8.0,18.0,40,0.00,,,0.00,meteohub,2013-03-01 01:45:00,
2013-02-28 18:46:00,35.8,13.8,30.32,NW,323,12.0,18.0,40,0.00,,,0.00,meteohub,2013-03-01 01:46:00,
2013-02-28 18:47:00,35.8,13.3,30.32,NW,321,15.0,18.0,39,0.00,,,0.00,meteohub,2013-03-01 01:47:00,
2013-02-28 18:50:00,35.8,13.8,30.32,WNW,286,8.0,18.0,40,0.00,,,0.00,meteohub,2013-03-01 01:50:00,
2013-02-28 18:51:00,35.8,13.8,30.32,NW,319,5.0,18.0,40,0.00,,,0.00,meteohub,2013-03-01 01:51:00,
2013-02-28 18:53:00,35.8,13.8,30.32,NNW,335,7.0,18.0,40,0.00,,,0.00,meteohub,2013-03-01 01:53:00,
2013-02-28 18:54:00,36.0,13.5,30.33,NW,311,7.0,18.0,39,0.00,,,0.00,meteohub,2013-03-01 01:54:00,
2013-02-28 18:55:00,36.0,13.5,30.33,NW,316,9.0,18.0,39,0.00,,,0.00,meteohub,2013-03-01 01:55:00,
2013-02-28 18:56:00,36.0,13.5,30.33,NW,314,8.0,19.0,39,0.00,,,0.00,meteohub,2013-03-01 01:56:00,
2013-02-28 18:59:00,36.0,13.5,30.33,NNW,329,9.0,19.0,39,0.00,,,0.00,meteohub,2013-03-01 01:59:00,
2013-02-28 19:00:00,36.0,13.5,30.33,NNW,338,8.0,19.0,39,0.00,,,0.00,meteohub,2013-03-01 02:00:00,
2013-02-28 19:01:00,36.0,13.5,30.33,NW,309,6.0,19.0,39,0.00,,,0.00,meteohub,2013-03-01 02:01:00,
2013-02-28 19:04:00,36.0,13.5,30.33,NNW,336,4.0,19.0,39,0.00,,,0.00,meteohub,2013-03-01 02:04:00,
2013-02-28 19:05:00,36.0,13.5,30.33,NNW,340,8.0,19.0,39,0.00,,,0.00,meteohub,2013-03-01 02:05:00,
2013-02-28 19:06:00,36.0,13.5,30.33,NW,306,5.0,14.0,39,0.00,,,0.00,meteohub,2013-03-01 02:06:00,
2013-02-28 19:10:00,36.0,13.5,30.33,NW,324,7.0,20.0,39,0.00,,,0.00,meteohub,2013-03-01 02:10:00,
2013-02-28 19:11:00,36.0,13.5,30.33,NNW,327,9.0,20.0,39,0.00,,,0.00,meteohub,2013-03-01 02:11:00,
2013-02-28 19:25:00,37.0,13.8,30.32,West,277,13.0,22.0,38,0.00,,,0.00,meteohub,2013-03-01 02:25:00,
2013-02-28 19:26:00,37.0,13.8,30.32,NW,322,14.0,22.0,38,0.00,,,0.00,meteohub,2013-03-01 02:26:00,
2013-02-28 19:30:00,37.0,13.8,30.32,NW,319,16.0,22.0,38,0.00,,,0.00,meteohub,2013-03-01 02:30:00,
2013-02-28 19:31:00,37.0,14.4,30.32,NW,323,15.0,26.0,39,0.00,,,0.00,meteohub,2013-03-01 02:31:00,
2013-02-28 19:34:00,37.0,14.4,30.32,NNW,348,13.0,26.0,39,0.00,,,0.00,meteohub,2013-03-01 02:34:00,
2013-02-28 19:35:00,37.0,14.4,30.33,NW,325,12.0,26.0,39,0.00,,,0.00,meteohub,2013-03-01 02:35:00,
2013-02-28 19:36:00,37.0,14.4,30.33,NW,311,10.0,26.0,39,0.00,,,0.00,meteohub,2013-03-01 02:36:00,
2013-02-28 19:39:00,37.0,14.4,30.33,North,0,9.0,26.0,39,0.00,,,0.00,meteohub,2013-03-01 02:39:00,
2013-02-28 19:41:00,37.0,14.4,30.34,NW,320,12.0,26.0,39,0.00,,,0.00,meteohub,2013-03-01 02:41:00,
2013-02-28 19:43:00,37.0,14.4,30.34,NNW,330,8.0,26.0,39,0.00,,,0.00,meteohub,2013-03-01 02:43:00,
2013-02-28 19:44:00,37.0,14.4,30.34,NNW,335,12.0,26.0,39,0.00,,,0.00,meteohub,2013-03-01 02:44:00,
2013-02-28 19:46:00,36.9,14.2,30.33,NNW,336,7.0,24.0,39,0.00,,,0.00,meteohub,2013-03-01 02:46:00,
2013-02-28 19:49:00,36.9,14.2,30.34,NNW,334,14.0,24.0,39,0.00,,,0.00,meteohub,2013-03-01 02:49:00,
2013-02-28 19:51:00,36.9,14.2,30.34,NNW,340,9.0,24.0,39,0.00,,,0.00,meteohub,2013-03-01 02:51:00,
2013-02-28 19:54:00,36.7,14.5,30.34,NNW,344,12.0,24.0,40,0.00,,,0.00,meteohub,2013-03-01 02:54:00,
2013-02-28 19:56:00,36.7,14.5,30.34,NNW,340,15.0,23.0,40,0.00,,,0.00,meteohub,2013-03-01 02:56:00,
2013-02-28 19:58:00,36.7,14.5,30.34,NW,319,19.0,23.0,40,0.00,,,0.00,meteohub,2013-03-01 02:58:00,
2013-02-28 19:59:00,36.7,14.5,30.34,NW,321,15.0,23.0,40,0.00,,,0.00,meteohub,2013-03-01 02:59:00,
2013-02-28 20:00:00,36.7,14.5,30.34,NNW,340,13.0,22.0,40,0.00,,,0.00,meteohub,2013-03-01 03:00:00,
2013-02-28 20:01:00,36.7,15.3,30.34,North,0,14.0,22.0,41,0.00,,,0.00,meteohub,2013-03-01 03:01:00,
2013-02-28 20:03:00,36.7,14.5,30.34,NNW,347,9.0,22.0,40,0.00,,,0.00,meteohub,2013-03-01 03:03:00,
2013-02-28 20:04:00,36.7,14.5,30.34,NW,319,11.0,22.0,40,0.00,,,0.00,meteohub,2013-03-01 03:04:00,
2013-02-28 20:05:00,36.7,14.5,30.34,NNW,344,9.0,22.0,40,0.00,,,0.00,meteohub,2013-03-01 03:05:00,
2013-02-28 20:06:00,36.7,14.0,30.34,North,5,12.0,22.0,39,0.00,,,0.00,meteohub,2013-03-01 03:06:00,
2013-02-28 20:08:00,36.9,14.7,30.34,NNW,335,13.0,22.0,40,0.00,,,0.00,meteohub,2013-03-01 03:08:00,
2013-02-28 20:09:00,36.9,14.7,30.34,NNW,329,14.0,22.0,40,0.00,,,0.00,meteohub,2013-03-01 03:09:00,
2013-02-28 20:10:00,36.9,14.7,30.34,NW,321,21.0,22.0,40,0.00,,,0.00,meteohub,2013-03-01 03:10:00,
2013-02-28 20:15:00,36.9,14.2,30.34,NNW,348,11.0,22.0,39,0.00,,,0.00,meteohub,2013-03-01 03:15:00,
2013-02-28 20:17:00,36.9,14.2,30.34,NNW,339,12.0,21.0,39,0.00,,,0.00,meteohub,2013-03-01 03:17:00,
2013-02-28 20:18:00,36.9,14.7,30.34,NW,325,9.0,21.0,40,0.00,,,0.00,meteohub,2013-03-01 03:18:00,
2013-02-28 20:20:00,36.7,15.3,30.34,North,355,17.0,21.0,41,0.00,,,0.00,meteohub,2013-03-01 03:20:00,
2013-02-28 20:23:00,36.7,14.0,30.34,NNW,333,10.0,22.0,39,0.00,,,0.00,meteohub,2013-03-01 03:23:00,
2013-02-28 20:24:00,36.7,14.5,30.34,NW,311,9.0,22.0,40,0.00,,,0.00,meteohub,2013-03-01 03:24:00,
2013-02-28 20:25:00,36.7,14.5,30.34,NW,317,12.0,22.0,40,0.00,,,0.00,meteohub,2013-03-01 03:25:00,
2013-02-28 20:26:00,36.7,14.5,30.34,NNW,331,16.0,22.0,40,0.00,,,0.00,meteohub,2013-03-01 03:26:00,
2013-02-28 20:28:00,36.7,14.5,30.34,NNW,327,18.0,22.0,40,0.00,,,0.00,meteohub,2013-03-01 03:28:00,
2013-02-28 20:30:00,36.5,14.5,30.34,NW,323,12.0,22.0,40,0.00,,,0.00,meteohub,2013-03-01 03:30:00,
2013-02-28 20:31:00,36.5,14.5,30.34,North,0,10.0,22.0,40,0.00,,,0.00,meteohub,2013-03-01 03:31:00,
2013-02-28 20:33:00,36.5,14.5,30.34,NNW,334,13.0,22.0,40,0.00,,,0.00,meteohub,2013-03-01 03:33:00,
2013-02-28 20:35:00,36.5,13.8,30.35,NNW,340,17.0,22.0,39,0.00,,,0.00,meteohub,2013-03-01 03:35:00,
2013-02-28 20:36:00,36.5,13.8,30.34,NNW,339,19.0,22.0,39,0.00,,,0.00,meteohub,2013-03-01 03:36:00,
2013-02-28 20:37:00,36.5,13.8,30.34,NNW,331,12.0,22.0,39,0.00,,,0.00,meteohub,2013-03-01 03:37:00,
2013-02-28 20:39:00,36.5,13.8,30.34,NNW,346,15.0,22.0,39,0.00,,,0.00,meteohub,2013-03-01 03:39:00,
2013-02-28 20:40:00,36.7,14.5,30.34,NNW,333,18.0,22.0,40,0.00,,,0.00,meteohub,2013-03-01 03:40:00,
2013-02-28 20:42:00,36.7,14.5,30.34,NNW,343,11.0,22.0,40,0.00,,,0.00,meteohub,2013-03-01 03:42:00,
2013-02-28 20:44:00,36.7,14.5,30.34,North,0,12.0,22.0,40,0.00,,,0.00,meteohub,2013-03-01 03:44:00,
2013-02-28 20:47:00,36.5,14.5,30.35,North,0,16.0,20.0,40,0.00,,,0.00,meteohub,2013-03-01 03:47:00,
2013-02-28 20:48:00,36.5,14.5,30.34,NNW,330,14.0,20.0,40,0.00,,,0.00,meteohub,2013-03-01 03:48:00,
2013-02-28 20:49:00,36.7,14.5,30.34,North,355,14.0,20.0,40,0.00,,,0.00,meteohub,2013-03-01 03:49:00,
2013-02-28 20:52:00,36.7,14.5,30.34,NNW,336,14.0,19.0,40,0.00,,,0.00,meteohub,2013-03-01 03:52:00,
2013-02-28 20:54:00,36.7,15.3,30.35,NW,312,11.0,19.0,41,0.00,,,0.00,meteohub,2013-03-01 03:54:00,
2013-02-28 20:55:00,36.5,15.1,30.34,North,351,13.0,19.0,41,0.00,,,0.00,meteohub,2013-03-01 03:55:00,
2013-02-28 20:58:00,36.7,15.3,30.35,North,349,7.0,19.0,41,0.00,,,0.00,meteohub,2013-03-01 03:58:00,
2013-02-28 20:59:00,36.7,14.5,30.35,NNW,338,12.0,19.0,40,0.00,,,0.00,meteohub,2013-03-01 03:59:00,
2013-02-28 21:02:00,36.7,15.3,30.35,NNW,329,13.0,21.0,41,0.00,,,0.00,meteohub,2013-03-01 04:02:00,
2013-02-28 21:05:00,36.7,14.5,30.34,NNW,338,10.0,21.0,40,0.00,,,0.00,meteohub,2013-03-01 04:05:00,
2013-02-28 21:07:00,36.7,15.3,30.35,NNW,344,9.0,21.0,41,0.00,,,0.00,meteohub,2013-03-01 04:07:00,
2013-02-28 21:08:00,36.7,14.5,30.35,North,5,10.0,21.0,40,0.00,,,0.00,meteohub,2013-03-01 04:08:00,
2013-02-28 21:10:00,36.7,15.3,30.35,North,355,9.0,21.0,41,0.00,,,0.00,meteohub,2013-03-01 04:10:00,
2013-02-28 21:12:00,36.7,14.5,30.34,NNW,336,20.0,25.0,40,0.00,,,0.00,meteohub,2013-03-01 04:12:00,
2013-02-28 21:13:00,36.9,14.7,30.34,NNW,336,16.0,25.0,40,0.00,,,0.00,meteohub,2013-03-01 04:13:00,
2013-02-28 21:14:00,36.9,14.7,30.34,North,350,11.0,25.0,40,0.00,,,0.00,meteohub,2013-03-01 04:14:00,
2013-02-28 21:15:00,36.9,14.7,30.34,NNW,346,14.0,25.0,40,0.00,,,0.00,meteohub,2013-03-01 04:15:00,
2013-02-28 21:17:00,36.9,14.7,30.34,NNW,341,16.0,25.0,40,0.00,,,0.00,meteohub,2013-03-01 04:17:00,
2013-02-28 21:18:00,36.9,14.7,30.34,NNW,332,10.0,25.0,40,0.00,,,0.00,meteohub,2013-03-01 04:18:00,
2013-02-28 21:20:00,36.9,14.7,30.34,NNW,348,10.0,25.0,40,0.00,,,0.00,meteohub,2013-03-01 04:20:00,
2013-02-28 21:21:00,36.9,14.7,30.34,NW,324,10.0,25.0,40,0.00,,,0.00,meteohub,2013-03-01 04:21:00,
2013-02-28 21:24:00,36.9,15.4,30.34,NNW,336,15.0,25.0,41,0.00,,,0.00,meteohub,2013-03-01 04:24:00,
2013-02-28 21:25:00,36.7,15.3,30.34,NW,319,13.0,25.0,41,0.00,,,0.00,meteohub,2013-03-01 04:25:00,
2013-02-28 21:26:00,36.7,15.3,30.34,NNW,340,12.0,25.0,41,0.00,,,0.00,meteohub,2013-03-01 04:26:00,
2013-02-28 21:31:00,36.7,14.5,30.34,North,355,15.0,23.0,40,0.00,,,0.00,meteohub,2013-03-01 04:31:00,
2013-02-28 21:32:00,36.7,14.5,30.34,NNW,348,9.0,23.0,40,0.00,,,0.00,meteohub,2013-03-01 04:32:00,
2013-02-28 21:36:00,36.7,14.5,30.34,NNW,340,5.0,23.0,40,0.00,,,0.00,meteohub,2013-03-01 04:36:00,
2013-02-28 21:37:00,36.7,14.5,30.34,NNW,343,8.0,23.0,40,0.00,,,0.00,meteohub,2013-03-01 04:37:00,
2013-02-28 21:38:00,36.7,15.3,30.34,NNW,336,13.0,23.0,41,0.00,,,0.00,meteohub,2013-03-01 04:38:00,
2013-02-28 21:41:00,36.7,14.5,30.34,NW,326,15.0,22.0,40,0.00,,,0.00,meteohub,2013-03-01 04:41:00,
2013-02-28 21:42:00,36.7,14.5,30.34,NNW,347,9.0,22.0,40,0.00,,,0.00,meteohub,2013-03-01 04:42:00,
2013-02-28 21:43:00,36.7,14.5,30.34,NNW,347,10.0,22.0,40,0.00,,,0.00,meteohub,2013-03-01 04:43:00,
2013-02-28 21:44:00,36.7,14.5,30.34,NNW,340,6.0,22.0,40,0.00,,,0.00,meteohub,2013-03-01 04:44:00,
2013-02-28 21:48:00,36.7,14.5,30.34,NNW,339,11.0,17.0,40,0.00,,,0.00,meteohub,2013-03-01 04:48:00,
2013-02-28 21:49:00,36.5,14.5,30.34,NNW,343,7.0,17.0,40,0.00,,,0.00,meteohub,2013-03-01 04:49:00,
2013-02-28 21:50:00,36.5,14.5,30.34,NNW,340,6.0,17.0,40,0.00,,,0.00,meteohub,2013-03-01 04:50:00,
2013-02-28 21:51:00,36.5,15.1,30.34,NW,306,7.0,18.0,41,0.00,,,0.00,meteohub,2013-03-01 04:51:00,
2013-02-28 21:53:00,36.5,14.5,30.34,NNW,339,5.0,18.0,40,0.00,,,0.00,meteohub,2013-03-01 04:53:00,
2013-02-28 21:55:00,36.3,14.4,30.34,NNW,331,7.0,18.0,40,0.00,,,0.00,meteohub,2013-03-01 04:55:00,
2013-02-28 21:56:00,36.3,14.4,30.34,NNW,333,9.0,18.0,40,0.00,,,0.00,meteohub,2013-03-01 04:56:00,
2013-02-28 21:57:00,36.3,14.4,30.34,NNW,330,12.0,18.0,40,0.00,,,0.00,meteohub,2013-03-01 04:57:00,
2013-02-28 22:00:00,36.3,14.9,30.34,NNW,342,11.0,18.0,41,0.00,,,0.00,meteohub,2013-03-01 05:00:00,
2013-02-28 22:01:00,36.3,14.9,30.34,NNW,345,12.0,18.0,41,0.00,,,0.00,meteohub,2013-03-01 05:01:00,
2013-02-28 22:02:00,36.1,14.7,30.34,NW,313,8.0,18.0,41,0.00,,,0.00,meteohub,2013-03-01 05:02:00,
2013-02-28 22:06:00,36.3,14.4,30.34,NNW,327,11.0,19.0,40,0.00,,,0.00,meteohub,2013-03-01 05:06:00,
2013-02-28 22:08:00,36.5,14.5,30.34,NNW,331,8.0,19.0,40,0.00,,,0.00,meteohub,2013-03-01 05:08:00,
2013-02-28 22:11:00,36.7,14.5,30.34,NNW,340,5.0,19.0,40,0.00,,,0.00,meteohub,2013-03-01 05:11:00,
2013-02-28 22:12:00,36.7,14.5,30.34,NNW,333,9.0,19.0,40,0.00,,,0.00,meteohub,2013-03-01 05:12:00,
2013-02-28 22:15:00,36.7,14.5,30.34,NNW,347,13.0,19.0,40,0.00,,,0.00,meteohub,2013-03-01 05:15:00,
2013-02-28 22:16:00,36.7,14.5,30.33,North,355,10.0,19.0,40,0.00,,,0.00,meteohub,2013-03-01 05:16:00,
2013-02-28 22:17:00,36.7,14.0,30.33,North,5,9.0,19.0,39,0.00,,,0.00,meteohub,2013-03-01 05:17:00,
2013-02-28 22:20:00,36.9,14.2,30.33,NW,312,11.0,18.0,39,0.00,,,0.00,meteohub,2013-03-01 05:20:00,
2013-02-28 22:21:00,36.9,14.2,30.33,NNW,339,7.0,18.0,39,0.00,,,0.00,meteohub,2013-03-01 05:21:00,
2013-02-28 22:23:00,36.9,13.6,30.33,NNW,337,15.0,18.0,38,0.00,,,0.00,meteohub,2013-03-01 05:23:00,
2013-02-28 22:26:00,37.0,14.4,30.33,NNW,340,8.0,18.0,39,0.00,,,0.00,meteohub,2013-03-01 05:26:00,
2013-02-28 22:27:00,37.0,14.4,30.33,North,355,8.0,18.0,39,0.00,,,0.00,meteohub,2013-03-01 05:27:00,
2013-02-28 22:28:00,37.0,14.4,30.33,NNW,330,5.0,18.0,39,0.00,,,0.00,meteohub,2013-03-01 05:28:00,
2013-02-28 22:31:00,36.9,14.7,30.33,NW,311,8.0,18.0,40,0.00,,,0.00,meteohub,2013-03-01 05:31:00,
2013-02-28 22:32:00,36.9,14.2,30.33,NW,317,6.0,18.0,39,0.00,,,0.00,meteohub,2013-03-01 05:32:00,
2013-02-28 22:33:00,36.9,14.7,30.33,NW,316,4.0,18.0,40,0.00,,,0.00,meteohub,2013-03-01 05:33:00,
2013-02-28 22:35:00,36.7,14.5,30.33,NW,318,8.0,18.0,40,0.00,,,0.00,meteohub,2013-03-01 05:35:00,
2013-02-28 22:36:00,36.7,14.5,30.32,NW,319,7.0,16.0,40,0.00,,,0.00,meteohub,2013-03-01 05:36:00,
2013-02-28 22:37:00,36.7,14.5,30.32,NW,319,4.0,16.0,40,0.00,,,0.00,meteohub,2013-03-01 05:37:00,
2013-02-28 22:39:00,36.5,14.5,30.32,NW,315,4.0,16.0,40,0.00,,,0.00,meteohub,2013-03-01 05:39:00,
2013-02-28 22:40:00,36.3,14.4,30.32,NNW,331,3.0,10.0,40,0.00,,,0.00,meteohub,2013-03-01 05:40:00,
2013-02-28 22:42:00,36.3,14.4,30.32,NW,313,5.0,10.0,40,0.00,,,0.00,meteohub,2013-03-01 05:42:00,
2013-02-28 22:43:00,36.1,14.2,30.32,NW,313,4.0,10.0,40,0.00,,,0.00,meteohub,2013-03-01 05:43:00,
2013-02-28 22:44:00,36.1,14.2,30.32,NW,313,2.0,10.0,40,0.00,,,0.00,meteohub,2013-03-01 05:44:00,
2013-02-28 22:47:00,36.0,14.0,30.32,NW,313,3.0,10.0,40,0.00,,,0.00,meteohub,2013-03-01 05:47:00,
2013-02-28 22:49:00,36.0,14.0,30.32,NW,313,4.0,10.0,40,0.00,,,0.00,meteohub,2013-03-01 05:49:00,
2013-02-28 22:51:00,35.8,14.4,30.32,WNW,283,5.0,9.0,41,0.00,,,0.00,meteohub,2013-03-01 05:51:00,
2013-02-28 22:52:00,35.6,14.2,30.32,WNW,284,2.0,9.0,41,0.00,,,0.00,meteohub,2013-03-01 05:52:00,
2013-02-28 22:55:00,35.4,14.0,30.32,WNW,284,1.0,9.0,41,0.00,,,0.00,meteohub,2013-03-01 05:55:00,
2013-02-28 22:57:00,35.2,13.8,30.32,WNW,290,3.0,6.0,41,0.00,,,0.00,meteohub,2013-03-01 05:57:00,
2013-02-28 23:00:00,35.1,13.6,30.32,WNW,290,2.0,6.0,41,0.00,,,0.00,meteohub,2013-03-01 06:00:00,
2013-02-28 23:02:00,35.1,13.6,30.32,NW,315,3.0,6.0,41,0.00,,,0.00,meteohub,2013-03-01 06:02:00,
2013-02-28 23:04:00,35.1,13.6,30.32,NW,306,0.0,6.0,41,0.00,,,0.00,meteohub,2013-03-01 06:04:00,
2013-02-28 23:08:00,35.1,13.6,30.32,NW,306,1.0,7.0,41,0.00,,,0.00,meteohub,2013-03-01 06:08:00,
2013-02-28 23:09:00,35.1,13.6,30.32,NE,38,3.0,7.0,41,0.00,,,0.00,meteohub,2013-03-01 06:09:00,
2013-02-28 23:10:00,34.9,13.6,30.32,ENE,77,5.0,7.0,41,0.00,,,0.00,meteohub,2013-03-01 06:10:00,
2013-02-28 23:14:00,34.9,14.2,30.31,NE,44,0.0,7.0,42,0.00,,,0.00,meteohub,2013-03-01 06:14:00,
2013-02-28 23:15:00,34.9,14.2,30.31,NE,43,2.0,7.0,42,0.00,,,0.00,meteohub,2013-03-01 06:15:00,
2013-02-28 23:16:00,34.9,14.2,30.31,NNE,12,3.0,7.0,42,0.00,,,0.00,meteohub,2013-03-01 06:16:00,
2013-02-28 23:18:00,34.9,14.2,30.31,NNE,13,3.0,7.0,42,0.00,,,0.00,meteohub,2013-03-01 06:18:00,
2013-02-28 23:20:00,35.1,14.4,30.31,NNE,17,1.0,7.0,42,0.00,,,0.00,meteohub,2013-03-01 06:20:00,
2013-02-28 23:22:00,35.1,14.4,30.31,NNE,24,3.0,6.0,42,0.00,,,0.00,meteohub,2013-03-01 06:22:00,
2013-02-28 23:23:00,34.9,14.2,30.31,NNE,24,0.0,6.0,42,0.00,,,0.00,meteohub,2013-03-01 06:23:00,
2013-02-28 23:27:00,34.9,14.2,30.31,NNW,328,3.0,6.0,42,0.00,,,0.00,meteohub,2013-03-01 06:27:00,
2013-02-28 23:28:00,34.9,14.2,30.31,NNW,328,2.0,6.0,42,0.00,,,0.00,meteohub,2013-03-01 06:28:00,
2013-02-28 23:29:00,34.9,14.2,30.31,NNW,346,5.0,6.0,42,0.00,,,0.00,meteohub,2013-03-01 06:29:00,
2013-02-28 23:32:00,34.9,14.2,30.31,NNW,331,4.0,6.0,42,0.00,,,0.00,meteohub,2013-03-01 06:32:00,
2013-02-28 23:33:00,34.9,14.2,30.31,North,351,5.0,6.0,42,0.00,,,0.00,meteohub,2013-03-01 06:33:00,
2013-02-28 23:35:00,34.9,14.2,30.31,NNW,348,12.0,14.0,42,0.00,,,0.00,meteohub,2013-03-01 06:35:00,
2013-02-28 23:38:00,34.9,14.2,30.30,NW,309,18.0,18.0,42,0.00,,,0.00,meteohub,2013-03-01 06:38:00,
2013-02-28 23:39:00,34.9,14.2,30.31,NNW,331,11.0,14.0,42,0.00,,,0.00,meteohub,2013-03-01 06:39:00,
2013-02-28 23:42:00,34.9,14.2,30.31,North,0,8.0,18.0,42,0.00,,,0.00,meteohub,2013-03-01 06:42:00,
2013-02-28 23:55:00,36.7,16.3,30.30,NW,325,7.0,26.0,43,0.00,,,0.00,meteohub,2013-03-01 06:55:00,
2013-02-28 23:56:00,36.7,15.8,30.30,NW,317,14.0,26.0,42,0.00,,,0.00,meteohub,2013-03-01 06:56:00,
2013-02-28 23:57:00,36.7,15.8,30.30,NNW,334,14.0,26.0,42,0.00,,,0.00,meteohub,2013-03-01 06:57:00,